GFSGL_500_temp_000.txt.gz
Temp
-15 -14 -14 -13 -14 -13 -14 -15 -16 -16 -16 -15 -15 -15 -15 -15 -15 -15 -15 -15 -14 -14 -14 -14 -14 -14 -14 -14 -14 -14 -15 -15 -15 -15 -16 -16 -17 -18 -18 -19 -19 -19 -19
-16 -16 -16 -15 -15 -14 -14 -15 -16 -16 -16 -16 -15 -15 -15 -15 -15 -15 -15 -15 -15 -15 -15 -15 -15 -14 -14 -14 -14 -15 -15 -15 -15 -16 -16 -17 -17 -17 -18 -18 -18 -18 -19
-17 -17 -17 -17 -17 -16 -16 -16 -16 -16 -16 -16 -16 -16 -16 -15 -15 -15 -15 -15 -15 -15 -15 -16 -15 -16 -16 -15 -15 -16 -16 -16 -16 -17 -17 -17 -18 -18 -18 -18 -19 -19 -19
-18 -17 -17 -17 -16 -16 -16 -17 -17 -17 -16 -17 -17 -17 -17 -16 -15 -15 -15 -16 -17 -17 -17 -17 -17 -17 -17 -16 -16 -16 -17 -17 -17 -18 -18 -18 -19 -19 -19 -20 -21 -21 -20
-17 -17 -18 -18 -17 -17 -17 -16 -17 -17 -16 -16 -16 -17 -17 -17 -16 -16 -16 -17 -17 -18 -18 -18 -18 -18 -18 -18 -18 -18 -18 -18 -19 -19 -19 -19 -20 -20 -21 -21 -21 -21 -21
-19 -18 -18 -18 -18 -17 -17 -17 -16 -17 -16 -17 -18 -18 -17 -17 -17 -17 -17 -18 -18 -18 -18 -19 -19 -19 -19 -19 -19 -19 -19 -20 -20 -20 -20 -21 -21 -21 -21 -21 -21 -21 -22
-19 -19 -19 -19 -19 -19 -18 -18 -18 -17 -17 -18 -18 -18 -18 -18 -18 -18 -18 -18 -18 -18 -19 -19 -19 -19 -20 -20 -19 -20 -20 -20 -21 -21 -21 -21 -21 -21 -21 -21 -21 -22 -22
-20 -20 -20 -20 -20 -19 -19 -19 -19 -18 -18 -18 -19 -19 -19 -18 -18 -18 -18 -19 -19 -19 -19 -19 -20 -20 -20 -20 -20 -21 -21 -21 -21 -22 -22 -22 -22 -22 -22 -22 -22 -22 -22
-20 -21 -22 -21 -20 -20 -20 -20 -19 -19 -18 -18 -19 -19 -19 -19 -19 -19 -19 -19 -19 -19 -19 -20 -20 -20 -21 -21 -21 -21 -21 -22 -22 -22 -22 -22 -22 -22 -23 -23 -23 -23 -23
-21 -21 -21 -21 -21 -21 -21 -21 -20 -20 -20 -20 -20 -20 -20 -19 -19 -19 -19 -21 -20 -20 -20 -20 -20 -21 -22 -22 -22 -22 -22 -22 -22 -23 -23 -23 -23 -22 -23 -23 -23 -23 -23
-23 -23 -22 -22 -22 -22 -21 -21 -21 -22 -21 -21 -20 -20 -20 -19 -19 -20 -21 -21 -20 -20 -21 -21 -21 -22 -22 -22 -22 -22 -22 -22 -23 -23 -23 -23 -23 -23 -23 -23 -23 -23 -23
-24 -23 -23 -22 -23 -23 -22 -22 -22 -22 -22 -21 -21 -21 -21 -22 -22 -21 -21 -20 -21 -21 -22 -22 -22 -22 -22 -22 -22 -22 -23 -23 -23 -23 -23 -23 -23 -23 -23 -24 -24 -24 -25
-24 -24 -23 -23 -24 -24 -24 -22 -23 -23 -23 -22 -21 -21 -21 -21 -22 -22 -22 -21 -22 -22 -22 -22 -22 -22 -22 -23 -23 -23 -23 -24 -24 -24 -23 -24 -24 -24 -25 -25 -25 -26 -27
-25 -24 -24 -24 -25 -26 -25 -25 -24 -23 -23 -23 -22 -22 -22 -21 -22 -22 -22 -22 -22 -22 -22 -23 -23 -22 -23 -23 -23 -24 -24 -24 -25 -24 -24 -24 -25 -25 -25 -25 -26 -27 -28
-26 -25 -25 -25 -25 -25 -25 -25 -25 -24 -24 -23 -23 -24 -23 -22 -22 -22 -22 -22 -22 -23 -23 -22 -23 -23 -24 -23 -23 -24 -24 -25 -25 -25 -25 -25 -25 -26 -27 -28 -28 -29 -29
-27 -26 -26 -25 -25 -25 -25 -25 -24 -25 -24 -23 -23 -23 -23 -23 -22 -22 -22 -22 -22 -23 -23 -23 -23 -23 -23 -24 -24 -25 -26 -26 -26 -26 -25 -26 -26 -28 -28 -29 -29 -30 -30
-28 -27 -26 -26 -25 -25 -25 -25 -25 -25 -24 -23 -23 -24 -24 -23 -22 -22 -22 -22 -23 -23 -23 -23 -23 -24 -24 -24 -23 -24 -25 -26 -25 -26 -27 -27 -28 -29 -29 -30 -30 -31 -31
-30 -30 -29 -28 -27 -27 -26 -25 -26 -25 -25 -24 -24 -25 -24 -24 -23 -23 -24 -24 -23 -23 -23 -24 -24 -24 -25 -25 -25 -25 -25 -25 -26 -27 -27 -28 -29 -30 -31 -31 -32 -32 -32
-31 -30 -30 -30 -30 -29 -28 -28 -27 -26 -25 -24 -25 -25 -25 -24 -24 -24 -25 -25 -24 -25 -25 -25 -25 -25 -25 -25 -25 -25 -26 -27 -27 -28 -29 -30 -30 -31 -31 -32 -32 -32 -32
-31 -31 -31 -31 -30 -30 -30 -29 -29 -27 -27 -26 -26 -26 -26 -25 -25 -24 -25 -25 -24 -24 -25 -24 -25 -26 -27 -26 -26 -26 -27 -28 -29 -29 -30 -31 -31 -31 -32 -33 -32 -32 -32
-31 -31 -31 -31 -32 -32 -31 -31 -30 -30 -28 -28 -26 -26 -26 -26 -25 -26 -25 -25 -26 -25 -25 -25 -25 -27 -27 -28 -29 -30 -30 -30 -30 -31 -32 -32 -32 -32 -33 -33 -33 -32 -32
-32 -32 -32 -32 -33 -32 -32 -32 -31 -31 -30 -29 -29 -28 -28 -27 -26 -26 -26 -27 -26 -26 -27 -28 -28 -29 -30 -30 -30 -31 -31 -31 -31 -31 -32 -33 -33 -33 -33 -33 -33 -33 -33
-33 -33 -34 -34 -34 -34 -33 -32 -32 -32 -32 -32 -32 -31 -30 -30 -30 -30 -30 -30 -30 -30 -30 -30 -30 -31 -31 -31 -31 -31 -31 -32 -32 -33 -33 -34 -34 -34 -34 -33 -33 -33 -33
-32 -33 -34 -34 -34 -34 -34 -33 -33 -33 -33 -33 -32 -32 -32 -32 -32 -32 -32 -31 -31 -31 -31 -31 -31 -31 -31 -32 -32 -32 -32 -33 -34 -34 -34 -34 -34 -34 -34 -34 -34 -34 -33
-32 -33 -33 -33 -33 -33 -33 -33 -33 -32 -32 -33 -33 -32 -32 -32 -33 -33 -32 -32 -31 -31 -31 -31 -31 -32 -32 -32 -33 -33 -34 -35 -35 -35 -35 -35 -35 -34 -34 -34 -34 -34 -34
-31 -31 -32 -32 -32 -32 -32 -32 -32 -32 -32 -33 -33 -33 -33 -32 -32 -32 -31 -31 -31 -31 -32 -32 -32 -32 -32 -33 -34 -35 -35 -35 -35 -35 -35 -35 -35 -34 -34 -34 -34 -34 -34

GFSGL_500_temp_003.txt.gz
Temp
-16 -16 -16 -15 -15 -15 -15 -15 -15 -15 -16 -15 -16 -16 -15 -15 -15 -15 -15 -16 -15 -15 -16 -16 -16 -15 -15 -15 -15 -15 -15 -15 -15 -15 -15 -15 -15 -16 -16 -16 -16 -16 -17
-17 -16 -16 -16 -17 -17 -16 -16 -16 -16 -17 -17 -17 -16 -15 -15 -16 -15 -15 -16 -15 -15 -16 -16 -16 -16 -15 -15 -15 -15 -15 -15 -16 -16 -16 -16 -17 -17 -17 -17 -17 -18 -18
-18 -17 -17 -17 -17 -17 -16 -17 -17 -17 -17 -17 -17 -17 -17 -17 -17 -17 -17 -16 -15 -15 -15 -16 -16 -16 -16 -15 -15 -15 -16 -16 -17 -17 -17 -17 -17 -17 -18 -18 -19 -19 -19
-19 -18 -17 -17 -17 -17 -17 -17 -17 -18 -17 -17 -17 -17 -18 -18 -17 -17 -16 -16 -16 -15 -16 -16 -16 -16 -16 -16 -16 -16 -16 -16 -17 -17 -17 -17 -17 -18 -18 -19 -19 -19 -20
-19 -18 -18 -18 -18 -18 -19 -18 -19 -18 -18 -18 -18 -18 -18 -18 -18 -17 -17 -17 -17 -17 -17 -17 -17 -17 -17 -17 -17 -17 -17 -17 -17 -18 -18 -18 -19 -19 -19 -19 -20 -20 -20
-20 -20 -19 -19 -19 -19 -19 -19 -19 -19 -20 -20 -20 -19 -18 -18 -18 -18 -17 -18 -17 -18 -17 -17 -18 -18 -18 -18 -18 -18 -18 -18 -18 -19 -19 -19 -19 -20 -20 -20 -20 -20 -21
-20 -20 -20 -20 -20 -19 -19 -19 -20 -20 -21 -21 -20 -19 -19 -18 -18 -19 -19 -18 -18 -18 -18 -17 -17 -18 -18 -18 -18 -18 -19 -19 -19 -19 -20 -20 -20 -20 -20 -20 -21 -21 -21
-22 -21 -21 -22 -21 -21 -20 -22 -21 -21 -21 -21 -21 -20 -19 -19 -19 -19 -19 -19 -18 -18 -18 -18 -18 -18 -18 -18 -18 -19 -19 -19 -20 -20 -20 -20 -20 -20 -21 -21 -21 -22 -22
-22 -22 -22 -22 -22 -22 -21 -21 -22 -22 -22 -21 -21 -21 -20 -20 -20 -19 -20 -19 -18 -18 -18 -18 -19 -19 -18 -19 -19 -19 -19 -20 -20 -20 -21 -21 -21 -21 -21 -21 -22 -22 -22
-24 -24 -23 -23 -23 -22 -23 -22 -22 -22 -21 -22 -21 -21 -21 -22 -21 -21 -22 -21 -20 -19 -19 -19 -18 -18 -19 -20 -20 -20 -20 -20 -21 -21 -22 -21 -21 -21 -22 -22 -22 -22 -22
-26 -26 -25 -25 -24 -24 -24 -24 -23 -23 -22 -22 -22 -22 -22 -21 -21 -21 -21 -21 -20 -20 -20 -20 -20 -19 -20 -20 -20 -20 -21 -21 -21 -22 -22 -22 -22 -22 -22 -22 -22 -23 -22
-27 -27 -26 -26 -26 -26 -26 -25 -25 -24 -23 -23 -22 -22 -22 -22 -22 -22 -22 -21 -21 -20 -21 -20 -20 -20 -21 -20 -20 -21 -21 -21 -21 -22 -22 -23 -22 -23 -23 -23 -22 -22 -23
-27 -27 -27 -27 -26 -26 -26 -26 -25 -25 -25 -24 -25 -24 -23 -22 -23 -22 -22 -22 -21 -22 -21 -21 -21 -21 -21 -20 -21 -21 -22 -22 -22 -22 -22 -22 -23 -23 -23 -22 -23 -23 -23
-29 -28 -27 -27 -27 -26 -26 -26 -26 -25 -26 -26 -26 -24 -24 -23 -23 -23 -23 -23 -22 -23 -23 -22 -22 -21 -21 -21 -22 -23 -22 -22 -22 -22 -22 -23 -23 -23 -23 -23 -23 -24 -25
-31 -30 -29 -28 -28 -27 -26 -26 -26 -26 -25 -25 -26 -25 -25 -24 -23 -24 -24 -23 -23 -23 -23 -23 -22 -22 -22 -22 -22 -22 -22 -23 -22 -22 -23 -23 -23 -23 -24 -24 -24 -25 -26
-31 -31 -30 -30 -29 -29 -27 -27 -27 -26 -26 -26 -25 -25 -25 -25 -25 -25 -25 -24 -23 -23 -23 -23 -23 -23 -22 -22 -22 -23 -23 -23 -23 -23 -23 -23 -24 -24 -24 -24 -25 -26 -26
-32 -32 -31 -31 -30 -30 -29 -28 -27 -28 -27 -27 -27 -25 -24 -25 -26 -26 -26 -25 -24 -23 -23 -23 -22 -23 -22 -22 -22 -22 -23 -24 -23 -23 -23 -23 -24 -24 -25 -26 -26 -26 -27
-30 -30 -30 -30 -31 -30 -30 -30 -29 -28 -29 -28 -28 -27 -26 -25 -25 -25 -26 -26 -25 -24 -23 -23 -23 -23 -23 -23 -23 -23 -23 -23 -23 -24 -24 -24 -25 -25 -26 -26 -27 -28 -28
-29 -30 -30 -30 -30 -30 -31 -31 -31 -30 -30 -30 -30 -29 -27 -27 -26 -25 -26 -26 -25 -24 -24 -24 -24 -25 -25 -25 -25 -26 -25 -25 -25 -25 -25 -25 -26 -26 -26 -28 -28 -29 -29
-29 -30 -30 -30 -30 -31 -31 -31 -31 -31 -31 -31 -31 -30 -30 -28 -28 -27 -26 -26 -25 -25 -25 -25 -25 -25 -25 -25 -25 -25 -26 -26 -25 -25 -25 -25 -26 -27 -27 -28 -29 -29 -30
-30 -31 -32 -31 -31 -31 -31 -32 -32 -32 -32 -32 -32 -31 -31 -30 -29 -29 -29 -27 -26 -26 -26 -26 -26 -25 -25 -25 -25 -26 -26 -26 -26 -26 -27 -28 -29 -29 -29 -30 -31 -31 -31
-31 -32 -33 -33 -32 -32 -33 -33 -33 -33 -33 -33 -33 -32 -32 -31 -30 -30 -30 -29 -29 -29 -28 -27 -27 -27 -27 -26 -27 -27 -27 -27 -28 -29 -29 -30 -30 -30 -31 -31 -32 -32 -32
-31 -32 -33 -33 -34 -34 -34 -34 -34 -34 -33 -33 -33 -33 -32 -32 -32 -32 -32 -31 -31 -30 -30 -29 -28 -27 -28 -28 -28 -28 -29 -30 -30 -30 -30 -31 -31 -31 -31 -32 -33 -33 -33
-31 -32 -32 -33 -33 -33 -34 -34 -34 -34 -34 -34 -34 -34 -34 -34 -34 -34 -33 -32 -32 -31 -31 -31 -30 -29 -29 -29 -30 -30 -30 -30 -31 -31 -32 -32 -32 -32 -33 -34 -34 -34 -34
-32 -32 -32 -32 -33 -33 -33 -33 -33 -33 -33 -34 -34 -34 -34 -34 -33 -33 -33 -33 -32 -32 -32 -32 -32 -31 -31 -31 -31 -31 -31 -31 -31 -32 -32 -33 -34 -34 -34 -35 -35 -35 -35
-32 -32 -32 -32 -32 -32 -33 -33 -33 -33 -33 -33 -33 -33 -33 -33 -33 -33 -33 -33 -33 -33 -32 -32 -32 -32 -31 -31 -31 -31 -31 -32 -32 -33 -34 -34 -35 -35 -35 -35 -35 -35 -35

GFSGL_500_temp_006.txt.gz
Temp
-18 -18 -18 -17 -16 -16 -16 -16 -15 -14 -15 -15 -15 -15 -15 -14 -14 -14 -15 -16 -15 -16 -16 -16 -16 -16 -16 -16 -16 -15 -15 -15 -15 -15 -15 -15 -15 -15 -15 -15 -15 -16 -16
-19 -19 -18 -18 -18 -17 -17 -18 -17 -17 -16 -17 -16 -16 -17 -16 -16 -16 -15 -16 -16 -16 -16 -16 -16 -16 -16 -17 -17 -16 -16 -16 -15 -15 -15 -15 -15 -15 -15 -15 -16 -16 -16
-18 -19 -19 -19 -19 -18 -18 -18 -18 -18 -17 -18 -18 -18 -17 -17 -17 -17 -17 -16 -16 -16 -16 -16 -16 -17 -17 -17 -17 -17 -17 -17 -16 -16 -16 -16 -16 -16 -16 -16 -16 -17 -17
-20 -20 -20 -19 -19 -19 -19 -18 -18 -18 -18 -18 -18 -18 -18 -18 -18 -17 -17 -17 -17 -17 -17 -17 -17 -18 -18 -18 -18 -18 -18 -18 -17 -17 -17 -17 -17 -17 -17 -18 -18 -18 -18
-20 -21 -21 -20 -20 -20 -20 -20 -19 -18 -18 -19 -19 -19 -19 -19 -19 -18 -18 -18 -18 -17 -17 -17 -18 -18 -18 -18 -18 -18 -18 -18 -18 -18 -18 -17 -18 -17 -18 -18 -18 -19 -19
-22 -22 -22 -21 -21 -21 -21 -21 -20 -19 -19 -19 -19 -19 -19 -19 -19 -19 -19 -19 -19 -18 -18 -18 -18 -18 -19 -19 -19 -19 -18 -18 -18 -18 -18 -18 -18 -18 -18 -19 -19 -19 -20
-23 -22 -22 -22 -22 -22 -22 -21 -21 -21 -20 -19 -19 -20 -20 -19 -20 -19 -19 -18 -19 -18 -19 -19 -18 -18 -19 -19 -19 -19 -19 -19 -18 -19 -18 -18 -18 -19 -19 -19 -19 -20 -20
-24 -23 -23 -23 -23 -23 -23 -22 -22 -22 -21 -21 -21 -21 -21 -20 -21 -21 -20 -20 -20 -19 -19 -19 -19 -19 -19 -19 -19 -19 -19 -19 -19 -19 -19 -18 -18 -19 -19 -19 -20 -20 -20
-26 -25 -25 -24 -24 -23 -23 -23 -23 -22 -22 -22 -21 -22 -22 -22 -22 -21 -22 -21 -21 -21 -20 -20 -20 -20 -20 -20 -20 -20 -20 -19 -19 -19 -19 -19 -19 -19 -19 -20 -20 -20 -20
-28 -28 -27 -27 -26 -26 -25 -24 -24 -23 -23 -23 -22 -22 -22 -22 -22 -22 -22 -22 -21 -22 -21 -21 -21 -20 -20 -20 -20 -20 -20 -20 -20 -20 -19 -19 -20 -20 -20 -20 -20 -20 -21
-29 -29 -28 -28 -28 -28 -27 -26 -26 -25 -24 -24 -24 -23 -22 -22 -22 -22 -22 -22 -22 -22 -22 -21 -21 -21 -21 -20 -22 -21 -21 -20 -20 -19 -19 -20 -20 -20 -20 -20 -21 -21 -21
-29 -28 -28 -28 -28 -28 -28 -27 -27 -27 -26 -26 -25 -24 -24 -24 -23 -23 -23 -22 -22 -22 -22 -21 -22 -22 -22 -21 -21 -21 -21 -21 -21 -20 -20 -20 -20 -20 -21 -21 -21 -21 -22
-29 -29 -29 -28 -28 -28 -27 -27 -27 -27 -27 -27 -26 -26 -25 -25 -26 -25 -23 -24 -23 -23 -23 -22 -22 -22 -23 -22 -22 -21 -21 -21 -20 -20 -20 -20 -20 -21 -21 -21 -22 -22 -22
-30 -30 -30 -30 -29 -29 -28 -27 -27 -27 -27 -27 -27 -27 -26 -26 -26 -26 -26 -25 -24 -24 -23 -23 -23 -22 -22 -22 -22 -21 -21 -21 -21 -20 -21 -21 -21 -21 -22 -22 -22 -22 -22
-31 -31 -30 -30 -30 -29 -29 -29 -28 -28 -28 -27 -27 -27 -26 -26 -26 -26 -26 -26 -26 -25 -24 -24 -23 -23 -22 -22 -22 -21 -21 -21 -21 -21 -21 -21 -21 -22 -22 -22 -22 -22 -23
-30 -30 -30 -30 -30 -30 -30 -30 -30 -30 -30 -29 -28 -28 -27 -26 -27 -27 -27 -26 -26 -26 -25 -24 -24 -24 -23 -22 -22 -22 -22 -22 -22 -22 -22 -22 -22 -22 -22 -22 -23 -23 -23
-30 -30 -29 -29 -29 -29 -29 -30 -30 -31 -31 -30 -30 -30 -29 -28 -28 -27 -27 -26 -27 -27 -25 -24 -24 -24 -23 -22 -22 -22 -22 -22 -23 -22 -22 -22 -22 -22 -23 -23 -23 -23 -23
-31 -30 -30 -30 -29 -29 -29 -29 -30 -30 -30 -31 -31 -31 -30 -30 -29 -28 -27 -27 -27 -27 -26 -25 -24 -24 -24 -24 -23 -23 -23 -23 -23 -23 -23 -23 -23 -23 -23 -23 -23 -24 -23
-31 -31 -30 -30 -30 -30 -30 -30 -30 -30 -30 -31 -31 -31 -32 -31 -31 -30 -29 -27 -27 -27 -26 -26 -25 -26 -25 -25 -24 -24 -24 -24 -24 -23 -23 -23 -24 -24 -24 -24 -25 -25 -26
-31 -32 -31 -31 -32 -32 -32 -32 -31 -31 -31 -31 -32 -32 -32 -32 -31 -31 -30 -29 -28 -28 -27 -27 -27 -27 -27 -26 -26 -26 -25 -24 -24 -24 -24 -24 -25 -26 -26 -26 -26 -26 -26
-31 -32 -33 -33 -34 -34 -33 -33 -32 -32 -32 -32 -33 -33 -33 -32 -32 -32 -31 -31 -30 -28 -28 -28 -27 -27 -27 -26 -26 -26 -26 -26 -25 -25 -25 -25 -25 -26 -26 -26 -26 -27 -27
-31 -32 -32 -33 -34 -34 -34 -34 -34 -33 -33 -33 -33 -34 -33 -33 -33 -33 -33 -32 -31 -30 -30 -30 -29 -29 -28 -28 -27 -26 -26 -27 -27 -27 -27 -26 -27 -27 -27 -27 -28 -28 -29
-31 -31 -32 -33 -33 -33 -34 -34 -34 -34 -34 -34 -34 -34 -34 -34 -34 -34 -33 -33 -32 -32 -32 -31 -31 -30 -29 -29 -28 -28 -28 -28 -28 -28 -28 -28 -28 -28 -28 -29 -30 -30 -31
-32 -32 -31 -32 -32 -33 -33 -33 -34 -34 -34 -34 -34 -34 -34 -34 -34 -34 -34 -34 -34 -33 -33 -33 -31 -30 -30 -30 -30 -30 -29 -29 -29 -29 -29 -29 -29 -30 -30 -30 -31 -31 -31
-32 -33 -33 -32 -32 -32 -32 -33 -33 -33 -33 -34 -34 -34 -35 -35 -35 -35 -35 -35 -34 -34 -33 -33 -33 -32 -32 -31 -31 -31 -30 -30 -30 -30 -30 -31 -31 -31 -31 -32 -32 -32 -32
-33 -33 -33 -33 -33 -32 -32 -33 -33 -33 -33 -33 -34 -34 -34 -34 -34 -34 -34 -34 -34 -34 -34 -33 -33 -32 -32 -32 -32 -32 -32 -32 -32 -31 -31 -31 -31 -32 -32 -32 -33 -33 -33

GFSGL_500_temp_009.txt.gz
Temp
-18 -19 -19 -19 -18 -18 -17 -17 -17 -17 -17 -16 -17 -17 -17 -17 -16 -15 -15 -15 -15 -15 -15 -15 -14 -15 -15 -16 -16 -16 -15 -16 -16 -15 -15 -15 -15 -14 -14 -14 -14 -14 -15
-20 -19 -20 -19 -19 -18 -18 -18 -18 -18 -18 -18 -18 -17 -18 -18 -17 -16 -16 -16 -15 -15 -16 -16 -16 -16 -16 -17 -17 -16 -16 -17 -17 -16 -16 -15 -15 -15 -15 -15 -15 -15 -15
-21 -21 -20 -20 -20 -20 -19 -19 -19 -19 -19 -19 -18 -18 -18 -18 -18 -18 -17 -17 -16 -16 -16 -16 -17 -17 -17 -17 -17 -17 -17 -17 -17 -16 -17 -17 -17 -17 -16 -15 -15 -15 -15
-22 -21 -21 -21 -21 -20 -20 -20 -20 -21 -21 -21 -20 -19 -19 -19 -19 -19 -18 -17 -18 -17 -17 -17 -18 -18 -17 -17 -17 -17 -17 -17 -17 -17 -17 -17 -17 -17 -17 -16 -16 -16 -16
-22 -22 -22 -22 -22 -21 -21 -21 -21 -22 -22 -22 -21 -21 -20 -20 -19 -19 -19 -19 -18 -18 -18 -18 -18 -18 -17 -17 -18 -18 -18 -18 -18 -17 -17 -18 -18 -18 -18 -17 -17 -17 -17
-24 -23 -23 -23 -23 -22 -22 -22 -22 -22 -22 -22 -21 -21 -20 -21 -20 -20 -20 -20 -19 -19 -19 -18 -18 -18 -18 -18 -18 -18 -19 -19 -19 -18 -17 -17 -18 -19 -18 -18 -18 -18 -18
-25 -25 -25 -24 -24 -24 -23 -23 -23 -24 -23 -23 -23 -22 -21 -21 -21 -21 -20 -20 -19 -19 -19 -19 -19 -19 -19 -18 -19 -19 -19 -19 -18 -19 -18 -17 -18 -19 -19 -19 -18 -19 -18
-27 -26 -26 -26 -25 -25 -25 -24 -24 -24 -23 -24 -24 -23 -22 -22 -21 -21 -22 -21 -20 -20 -20 -19 -19 -19 -19 -19 -19 -19 -19 -19 -19 -19 -19 -19 -19 -19 -19 -19 -19 -19 -18
-28 -28 -28 -28 -28 -27 -27 -26 -25 -25 -24 -24 -24 -24 -24 -23 -22 -22 -22 -22 -21 -21 -20 -20 -20 -19 -19 -19 -19 -19 -20 -19 -19 -19 -19 -19 -19 -19 -20 -20 -19 -19 -19
-30 -29 -29 -29 -29 -29 -28 -28 -28 -27 -26 -25 -25 -24 -24 -24 -24 -24 -23 -22 -21 -21 -22 -22 -21 -21 -21 -21 -20 -21 -21 -20 -20 -19 -20 -20 -20 -20 -20 -20 -20 -20 -19
-30 -29 -29 -29 -29 -28 -28 -28 -28 -28 -28 -27 -26 -25 -25 -24 -24 -25 -25 -24 -22 -21 -22 -22 -22 -22 -22 -22 -22 -21 -20 -20 -20 -21 -20 -20 -20 -20 -20 -20 -20 -20 -20
-29 -29 -29 -29 -29 -28 -28 -28 -27 -27 -27 -27 -27 -26 -26 -26 -25 -25 -26 -26 -25 -23 -22 -23 -23 -23 -22 -22 -22 -22 -22 -21 -21 -21 -21 -21 -21 -20 -20 -21 -21 -21 -21
-31 -30 -30 -30 -30 -30 -29 -29 -29 -28 -27 -27 -27 -27 -26 -26 -26 -26 -26 -26 -27 -26 -23 -23 -24 -24 -23 -22 -22 -22 -22 -22 -22 -21 -21 -21 -21 -21 -21 -21 -21 -21 -20
-32 -31 -31 -30 -30 -30 -29 -29 -29 -29 -29 -29 -28 -28 -27 -27 -27 -27 -26 -27 -27 -28 -26 -25 -25 -25 -24 -24 -22 -22 -22 -22 -22 -22 -22 -22 -22 -22 -22 -22 -21 -21 -21
-32 -31 -30 -30 -30 -30 -30 -29 -29 -29 -29 -29 -29 -29 -29 -29 -28 -28 -27 -27 -26 -27 -27 -27 -27 -26 -25 -24 -23 -23 -23 -23 -22 -22 -22 -22 -22 -22 -22 -22 -22 -22 -21
-32 -31 -30 -30 -30 -31 -31 -31 -30 -30 -29 -29 -29 -29 -30 -30 -30 -30 -29 -28 -27 -28 -27 -27 -27 -27 -26 -26 -25 -24 -23 -23 -23 -23 -23 -23 -23 -23 -22 -22 -22 -22 -22
-31 -30 -30 -30 -31 -31 -31 -31 -31 -30 -30 -29 -29 -29 -29 -30 -31 -31 -30 -30 -30 -29 -28 -27 -27 -27 -27 -27 -26 -26 -25 -24 -24 -24 -23 -23 -23 -23 -22 -22 -22 -22 -23
-31 -30 -31 -31 -31 -32 -32 -32 -32 -31 -30 -30 -30 -29 -30 -30 -30 -31 -32 -32 -31 -30 -29 -28 -27 -27 -27 -27 -27 -26 -26 -25 -24 -24 -23 -23 -23 -23 -23 -23 -23 -22 -23
-31 -30 -31 -31 -32 -33 -34 -34 -34 -33 -32 -32 -31 -30 -30 -30 -30 -31 -32 -32 -32 -32 -31 -30 -29 -28 -28 -28 -28 -27 -26 -25 -25 -24 -24 -24 -24 -23 -23 -23 -23 -23 -23
-33 -31 -31 -32 -32 -33 -34 -34 -34 -34 -33 -33 -32 -31 -31 -31 -32 -32 -32 -33 -32 -32 -32 -31 -30 -29 -29 -28 -29 -28 -27 -26 -25 -25 -25 -25 -25 -24 -23 -24 -24 -24 -24
-33 -32 -32 -32 -32 -33 -33 -33 -34 -34 -33 -33 -33 -33 -33 -33 -33 -33 -33 -34 -34 -33 -33 -32 -31 -31 -30 -30 -30 -29 -28 -27 -27 -27 -25 -25 -26 -25 -24 -24 -25 -24 -24
-33 -32 -32 -32 -32 -33 -33 -33 -33 -33 -34 -33 -34 -34 -34 -34 -34 -34 -34 -34 -34 -34 -34 -33 -32 -32 -31 -31 -31 -30 -29 -28 -27 -27 -27 -26 -26 -26 -25 -25 -25 -25 -25
-33 -33 -32 -32 -32 -32 -32 -33 -33 -33 -34 -34 -34 -34 -35 -35 -35 -35 -35 -35 -35 -34 -34 -34 -34 -33 -33 -32 -31 -30 -29 -29 -28 -27 -27 -26 -26 -26 -26 -26 -26 -26 -27
-33 -33 -33 -33 -32 -32 -32 -33 -33 -33 -33 -34 -34 -34 -35 -35 -35 -35 -35 -35 -35 -35 -35 -34 -34 -34 -33 -32 -32 -31 -30 -29 -29 -29 -28 -28 -28 -27 -27 -27 -27 -28 -28
-34 -33 -33 -33 -33 -33 -33 -33 -33 -33 -33 -33 -34 -34 -34 -35 -35 -35 -35 -36 -36 -35 -35 -35 -35 -34 -34 -33 -33 -32 -31 -30 -30 -30 -30 -30 -30 -30 -30 -29 -29 -29 -30
-34 -34 -34 -33 -34 -33 -33 -33 -33 -33 -33 -33 -33 -34 -34 -34 -34 -34 -34 -34 -35 -35 -35 -35 -35 -34 -34 -34 -33 -32 -32 -31 -31 -31 -31 -31 -31 -31 -31 -31 -31 -31 -31

GFSGL_500_temp_015.txt.gz
Temp
-21 -22 -21 -21 -21 -20 -21 -20 -20 -20 -20 -20 -19 -19 -19 -20 -19 -19 -18 -18 -18 -18 -18 -17 -17 -17 -16 -16 -17 -16 -16 -16 -15 -15 -15 -15 -15 -15 -16 -16 -15 -15 -14
-22 -22 -22 -22 -22 -23 -22 -22 -21 -21 -20 -20 -20 -20 -20 -21 -20 -20 -20 -20 -19 -19 -19 -19 -18 -17 -17 -17 -17 -18 -17 -17 -17 -16 -16 -16 -15 -15 -16 -16 -16 -16 -15
-22 -22 -22 -22 -22 -22 -22 -22 -22 -22 -22 -22 -21 -21 -21 -22 -21 -21 -21 -21 -21 -20 -20 -20 -20 -19 -18 -18 -18 -18 -18 -18 -17 -17 -17 -17 -16 -16 -16 -17 -17 -16 -16
-23 -23 -23 -23 -23 -23 -23 -23 -23 -23 -23 -23 -23 -23 -23 -22 -22 -22 -22 -22 -22 -21 -21 -20 -20 -20 -20 -19 -19 -18 -18 -18 -17 -17 -17 -17 -16 -17 -16 -17 -17 -17 -17
-24 -24 -24 -25 -25 -25 -25 -25 -25 -25 -25 -25 -24 -24 -24 -24 -23 -23 -23 -23 -22 -22 -22 -22 -21 -21 -20 -20 -20 -20 -19 -19 -19 -18 -18 -17 -16 -16 -17 -17 -18 -18 -18
-26 -26 -27 -27 -28 -29 -28 -28 -28 -28 -28 -27 -27 -26 -25 -25 -25 -25 -24 -24 -23 -23 -23 -22 -22 -22 -22 -21 -21 -21 -20 -20 -20 -20 -20 -19 -18 -17 -18 -18 -19 -19 -19
-28 -29 -30 -30 -30 -30 -30 -30 -30 -30 -29 -29 -29 -28 -28 -27 -27 -26 -26 -25 -24 -24 -23 -23 -22 -22 -22 -22 -22 -21 -21 -21 -20 -21 -20 -20 -19 -19 -19 -19 -19 -19 -19
-30 -31 -31 -31 -31 -31 -31 -31 -31 -30 -30 -30 -30 -29 -29 -28 -28 -28 -28 -27 -26 -25 -25 -24 -24 -23 -23 -23 -23 -23 -22 -22 -21 -21 -21 -20 -20 -20 -19 -19 -19 -19 -20
-31 -31 -31 -31 -31 -31 -31 -31 -30 -30 -30 -30 -29 -29 -29 -29 -29 -29 -29 -28 -28 -27 -26 -25 -25 -24 -23 -23 -23 -23 -23 -23 -22 -22 -22 -22 -21 -20 -20 -20 -19 -19 -19
-31 -31 -31 -31 -31 -31 -31 -30 -30 -30 -30 -29 -29 -29 -28 -28 -28 -28 -28 -28 -28 -28 -28 -27 -26 -25 -25 -24 -24 -24 -23 -23 -23 -23 -23 -23 -23 -22 -21 -20 -20 -19 -19
-32 -32 -32 -32 -32 -31 -31 -31 -31 -30 -29 -29 -29 -29 -29 -29 -29 -30 -30 -29 -29 -28 -28 -27 -27 -27 -26 -26 -25 -24 -24 -23 -23 -23 -23 -22 -23 -22 -21 -20 -20 -20 -20
-32 -32 -32 -33 -32 -32 -32 -32 -32 -31 -31 -30 -30 -30 -30 -30 -30 -30 -30 -30 -30 -30 -29 -29 -27 -27 -27 -27 -27 -26 -25 -24 -24 -24 -24 -23 -22 -22 -22 -21 -21 -21 -20
-33 -34 -34 -33 -33 -33 -33 -33 -32 -31 -31 -30 -30 -30 -30 -30 -31 -32 -32 -31 -30 -30 -30 -29 -28 -28 -27 -26 -26 -27 -26 -26 -25 -24 -24 -23 -23 -23 -23 -22 -22 -21 -21
-35 -35 -34 -34 -34 -34 -34 -34 -32 -31 -30 -30 -30 -30 -31 -31 -33 -33 -32 -32 -31 -31 -30 -30 -30 -29 -29 -28 -27 -27 -27 -27 -27 -26 -25 -25 -24 -24 -23 -23 -23 -22 -22
-36 -36 -35 -34 -34 -34 -34 -34 -32 -31 -31 -31 -31 -30 -31 -32 -33 -32 -31 -31 -31 -31 -31 -31 -31 -29 -29 -29 -29 -28 -27 -27 -27 -27 -27 -26 -26 -25 -24 -24 -23 -23 -22
-36 -36 -35 -35 -35 -34 -34 -33 -33 -32 -31 -31 -31 -31 -31 -32 -33 -32 -32 -32 -32 -32 -31 -31 -30 -30 -29 -29 -29 -30 -29 -29 -28 -28 -28 -28 -28 -27 -27 -26 -25 -24 -23
-37 -36 -35 -35 -35 -34 -34 -33 -32 -33 -32 -31 -31 -31 -32 -32 -33 -33 -33 -33 -32 -32 -31 -31 -30 -29 -30 -30 -30 -31 -31 -31 -30 -29 -29 -29 -29 -28 -28 -27 -27 -25 -25
-37 -36 -36 -35 -34 -34 -33 -33 -33 -32 -31 -32 -32 -32 -32 -33 -33 -33 -33 -33 -33 -32 -31 -31 -30 -30 -31 -31 -31 -32 -32 -32 -31 -31 -30 -29 -29 -29 -29 -28 -28 -27 -26
-37 -36 -36 -35 -35 -34 -34 -33 -33 -33 -32 -32 -32 -32 -33 -33 -34 -33 -34 -34 -34 -33 -32 -32 -31 -31 -32 -32 -33 -34 -34 -33 -33 -32 -31 -31 -30 -29 -29 -29 -29 -28 -27
-37 -36 -36 -35 -35 -34 -34 -33 -33 -33 -33 -32 -32 -32 -32 -33 -34 -34 -34 -34 -34 -34 -34 -33 -33 -33 -33 -33 -34 -35 -35 -34 -34 -33 -33 -32 -31 -30 -29 -29 -29 -29 -29
-37 -36 -36 -35 -35 -34 -34 -34 -33 -33 -33 -33 -32 -32 -32 -33 -34 -34 -35 -35 -35 -35 -35 -35 -34 -34 -34 -34 -35 -35 -35 -35 -34 -34 -34 -33 -32 -31 -30 -30 -29 -29 -29
-37 -36 -36 -35 -35 -34 -34 -34 -33 -33 -33 -33 -33 -33 -33 -33 -34 -34 -34 -35 -35 -35 -35 -35 -35 -35 -35 -35 -35 -35 -35 -35 -35 -35 -34 -34 -33 -32 -31 -30 -30 -30 -30
-36 -36 -36 -35 -35 -35 -34 -34 -34 -33 -34 -33 -33 -33 -33 -33 -34 -34 -34 -35 -35 -35 -36 -36 -36 -36 -36 -36 -36 -36 -36 -35 -35 -35 -34 -34 -33 -33 -32 -31 -31 -30 -30
-36 -36 -35 -35 -35 -35 -34 -34 -34 -34 -34 -34 -34 -34 -35 -35 -35 -35 -35 -34 -35 -35 -35 -36 -36 -36 -37 -37 -37 -36 -36 -36 -36 -35 -35 -35 -34 -33 -32 -32 -32 -31 -30
-36 -36 -36 -35 -35 -35 -34 -34 -34 -34 -34 -34 -35 -35 -36 -36 -36 -35 -35 -35 -35 -35 -35 -35 -36 -36 -36 -37 -37 -37 -36 -37 -37 -36 -36 -35 -35 -34 -34 -33 -32 -32 -31
-36 -36 -36 -35 -35 -35 -35 -34 -34 -34 -35 -35 -36 -36 -37 -37 -37 -36 -36 -35 -35 -34 -35 -35 -35 -35 -36 -36 -36 -36 -36 -36 -36 -36 -35 -35 -34 -34 -34 -33 -32 -31 -31

GFSGL_500_temp_021.txt.gz
Temp
-21 -22 -22 -22 -22 -22 -22 -22 -22 -22 -22 -22 -21 -21 -21 -22 -21 -21 -21 -21 -21 -21 -21 -20 -20 -20 -20 -19 -19 -20 -19 -17 -15 -15 -15 -16 -16 -16 -16 -16 -16 -15 -15
-22 -22 -22 -22 -22 -22 -22 -22 -22 -23 -23 -23 -22 -22 -22 -22 -22 -22 -23 -22 -21 -21 -21 -21 -21 -21 -20 -20 -20 -20 -20 -20 -18 -16 -16 -16 -16 -17 -17 -17 -17 -16 -16
-22 -22 -22 -22 -23 -23 -23 -23 -23 -23 -23 -23 -23 -23 -23 -23 -23 -23 -22 -22 -22 -22 -22 -22 -21 -21 -21 -21 -21 -21 -21 -21 -20 -18 -17 -18 -18 -18 -17 -18 -18 -18 -17
-23 -23 -24 -24 -24 -24 -24 -24 -24 -24 -24 -24 -24 -24 -24 -24 -24 -24 -23 -23 -23 -22 -22 -22 -22 -22 -22 -22 -22 -22 -22 -21 -21 -21 -20 -19 -19 -19 -20 -19 -19 -19 -19
-24 -24 -24 -24 -24 -25 -25 -25 -25 -26 -26 -26 -26 -27 -27 -27 -26 -26 -26 -25 -24 -24 -23 -23 -23 -22 -22 -22 -22 -22 -22 -22 -22 -21 -21 -20 -20 -20 -20 -21 -20 -21 -20
-25 -25 -25 -26 -26 -27 -28 -28 -29 -29 -30 -30 -30 -30 -30 -30 -30 -29 -29 -28 -27 -27 -26 -25 -25 -24 -24 -23 -23 -22 -22 -22 -23 -22 -22 -22 -21 -21 -21 -21 -21 -21 -21
-26 -27 -28 -29 -29 -30 -30 -31 -31 -31 -31 -31 -31 -31 -30 -30 -30 -30 -29 -29 -29 -28 -28 -27 -27 -27 -26 -26 -25 -25 -24 -24 -24 -24 -24 -23 -22 -23 -22 -21 -22 -22 -22
-29 -30 -31 -31 -31 -31 -31 -31 -31 -31 -31 -31 -31 -31 -31 -31 -31 -30 -30 -29 -29 -28 -28 -28 -27 -27 -27 -27 -27 -27 -27 -27 -27 -26 -25 -24 -24 -24 -25 -24 -23 -23 -22
-31 -31 -31 -31 -31 -32 -32 -32 -32 -32 -32 -32 -32 -31 -31 -31 -31 -30 -30 -30 -29 -29 -28 -28 -28 -28 -28 -28 -28 -28 -28 -28 -28 -28 -28 -27 -26 -25 -25 -25 -24 -24 -22
-32 -32 -32 -32 -32 -32 -32 -32 -32 -32 -32 -32 -32 -32 -32 -31 -31 -31 -31 -30 -30 -30 -30 -30 -30 -30 -30 -30 -30 -29 -29 -29 -29 -29 -28 -28 -28 -27 -27 -26 -25 -25 -24
-32 -32 -32 -32 -33 -33 -33 -32 -32 -32 -33 -32 -32 -32 -32 -32 -32 -33 -32 -31 -30 -30 -30 -30 -30 -30 -30 -30 -30 -30 -30 -30 -29 -29 -29 -28 -28 -28 -28 -28 -26 -26 -25
-33 -33 -33 -33 -33 -33 -33 -33 -33 -33 -33 -33 -33 -33 -33 -33 -33 -33 -32 -31 -31 -30 -30 -31 -31 -31 -30 -30 -30 -30 -29 -29 -29 -29 -28 -28 -29 -28 -28 -28 -28 -28 -27
-33 -33 -33 -33 -33 -33 -34 -34 -34 -34 -34 -33 -33 -33 -34 -34 -34 -33 -33 -32 -32 -31 -31 -30 -31 -31 -30 -30 -30 -30 -29 -29 -29 -29 -29 -29 -28 -29 -29 -28 -29 -29 -29
-33 -33 -33 -34 -34 -34 -34 -35 -35 -35 -35 -34 -34 -34 -34 -34 -34 -33 -32 -32 -32 -32 -31 -31 -31 -31 -31 -31 -31 -31 -31 -31 -30 -29 -29 -30 -29 -29 -29 -30 -29 -29 -29
-34 -34 -34 -35 -35 -35 -36 -36 -36 -36 -36 -35 -35 -35 -34 -34 -33 -33 -32 -32 -32 -32 -31 -31 -31 -31 -31 -31 -31 -31 -32 -32 -31 -30 -30 -30 -29 -29 -30 -30 -30 -30 -29
-35 -35 -35 -36 -36 -36 -36 -37 -37 -37 -37 -36 -35 -35 -34 -33 -33 -32 -32 -32 -32 -32 -32 -32 -32 -32 -32 -32 -32 -33 -33 -32 -31 -31 -31 -31 -31 -30 -30 -31 -31 -30 -30
-36 -36 -36 -37 -37 -37 -37 -37 -37 -38 -37 -37 -36 -35 -34 -34 -33 -33 -32 -32 -32 -32 -32 -32 -32 -33 -34 -34 -34 -34 -34 -33 -31 -31 -31 -31 -32 -32 -32 -32 -32 -31 -31
-37 -37 -37 -38 -38 -38 -38 -38 -37 -37 -37 -37 -36 -35 -34 -34 -33 -33 -32 -32 -32 -32 -32 -32 -33 -34 -34 -34 -35 -35 -35 -34 -33 -32 -32 -32 -32 -32 -32 -32 -32 -32 -31
-37 -38 -38 -38 -38 -38 -39 -39 -38 -38 -37 -36 -36 -36 -35 -34 -34 -33 -33 -33 -32 -32 -33 -33 -34 -35 -35 -35 -35 -35 -35 -35 -34 -34 -33 -33 -32 -32 -32 -32 -32 -32 -31
-38 -38 -38 -39 -39 -39 -39 -39 -38 -38 -37 -36 -35 -35 -35 -35 -34 -34 -34 -34 -34 -34 -34 -35 -35 -35 -35 -35 -35 -36 -36 -36 -35 -35 -34 -35 -34 -34 -34 -33 -32 -32 -31
-38 -39 -39 -39 -39 -39 -39 -39 -38 -37 -37 -36 -35 -35 -35 -34 -34 -34 -34 -34 -35 -35 -35 -35 -35 -35 -35 -35 -35 -36 -36 -36 -36 -36 -35 -35 -35 -35 -35 -34 -34 -34 -33
-39 -39 -39 -39 -39 -39 -39 -38 -38 -37 -36 -36 -35 -35 -35 -34 -34 -34 -35 -35 -36 -36 -36 -35 -35 -35 -35 -35 -35 -36 -37 -37 -37 -36 -36 -36 -35 -35 -35 -36 -36 -35 -35
-39 -39 -39 -39 -39 -39 -39 -38 -37 -37 -36 -36 -35 -35 -35 -35 -35 -35 -36 -36 -36 -37 -37 -36 -36 -35 -35 -35 -35 -36 -36 -37 -37 -37 -37 -37 -37 -36 -36 -36 -37 -37 -36
-40 -39 -39 -39 -39 -39 -38 -37 -37 -37 -36 -36 -35 -35 -35 -35 -36 -36 -36 -36 -37 -37 -37 -37 -36 -36 -35 -35 -35 -36 -36 -36 -36 -37 -37 -37 -37 -37 -37 -37 -37 -37 -37
-39 -39 -39 -39 -39 -38 -38 -37 -37 -36 -36 -36 -36 -35 -35 -36 -36 -37 -37 -37 -37 -37 -37 -37 -37 -37 -37 -36 -36 -36 -36 -36 -36 -36 -36 -37 -37 -38 -37 -37 -37 -37 -37
-39 -39 -39 -39 -39 -38 -37 -37 -37 -36 -36 -36 -36 -36 -36 -36 -36 -37 -37 -37 -37 -37 -37 -37 -37 -37 -37 -37 -36 -36 -36 -36 -36 -36 -36 -36 -37 -37 -37 -37 -37 -37 -37

GFSGL_500_temp_024.txt.gz
Temp
-22 -22 -22 -22 -22 -22 -22 -22 -22 -22 -22 -22 -22 -22 -22 -22 -22 -22 -22 -22 -22 -22 -21 -21 -21 -21 -21 -21 -21 -20 -19 -18 -17 -16 -18 -19 -17 -17 -17 -17 -16 -16 -16
-23 -23 -23 -23 -22 -22 -22 -22 -22 -22 -22 -23 -23 -23 -23 -23 -23 -23 -23 -23 -23 -23 -23 -22 -22 -22 -22 -22 -22 -22 -21 -20 -19 -17 -17 -19 -19 -19 -19 -18 -17 -17 -16
-23 -23 -23 -23 -23 -23 -23 -23 -23 -23 -23 -24 -24 -24 -24 -24 -24 -24 -24 -24 -24 -24 -23 -23 -23 -23 -22 -22 -22 -22 -22 -22 -21 -19 -18 -18 -19 -20 -20 -20 -19 -18 -18
-24 -24 -24 -24 -24 -24 -24 -24 -24 -24 -24 -24 -24 -24 -25 -25 -25 -25 -25 -25 -25 -25 -25 -24 -24 -24 -23 -23 -23 -22 -22 -22 -22 -21 -20 -19 -19 -20 -20 -21 -20 -20 -20
-24 -25 -25 -25 -25 -25 -25 -25 -25 -25 -25 -26 -26 -27 -27 -28 -28 -28 -29 -29 -29 -28 -28 -28 -27 -26 -26 -25 -24 -23 -23 -22 -22 -21 -21 -21 -20 -20 -20 -21 -21 -21 -21
-25 -25 -25 -25 -25 -25 -26 -26 -27 -27 -28 -29 -30 -30 -30 -31 -31 -31 -31 -31 -30 -30 -29 -29 -28 -28 -27 -27 -26 -26 -25 -24 -23 -22 -22 -21 -21 -21 -21 -21 -21 -21 -21
-26 -26 -26 -26 -26 -27 -27 -29 -30 -30 -31 -31 -31 -31 -31 -31 -31 -31 -31 -31 -30 -30 -30 -29 -29 -29 -29 -28 -28 -27 -27 -27 -26 -26 -24 -24 -23 -23 -22 -21 -21 -21 -21
-26 -26 -27 -27 -28 -29 -30 -31 -31 -32 -32 -32 -32 -32 -32 -32 -32 -32 -32 -31 -31 -30 -30 -30 -30 -29 -29 -29 -28 -28 -28 -28 -28 -28 -27 -26 -26 -25 -25 -24 -23 -22 -21
-27 -28 -29 -30 -30 -31 -32 -32 -32 -32 -32 -32 -32 -32 -32 -33 -32 -32 -32 -31 -31 -31 -31 -30 -31 -30 -30 -30 -30 -29 -29 -29 -29 -28 -28 -28 -28 -28 -27 -27 -26 -25 -22
-29 -30 -31 -32 -32 -33 -33 -33 -33 -33 -33 -33 -33 -33 -33 -33 -33 -32 -32 -32 -31 -31 -31 -32 -32 -32 -31 -31 -31 -30 -30 -30 -30 -30 -30 -30 -29 -29 -29 -28 -28 -27 -26
-31 -32 -33 -33 -33 -33 -33 -33 -33 -33 -33 -33 -33 -33 -33 -33 -33 -33 -33 -33 -33 -33 -33 -32 -32 -32 -31 -31 -31 -31 -30 -30 -30 -30 -29 -29 -29 -29 -29 -29 -29 -29 -28
-33 -33 -33 -33 -33 -33 -33 -34 -34 -34 -34 -34 -34 -34 -34 -34 -34 -34 -34 -34 -34 -33 -33 -32 -32 -32 -31 -31 -31 -31 -31 -30 -30 -30 -30 -30 -29 -29 -29 -29 -29 -29 -29
-33 -34 -34 -34 -34 -34 -34 -34 -34 -34 -34 -35 -35 -34 -34 -34 -35 -35 -35 -35 -34 -34 -33 -33 -32 -32 -31 -31 -31 -31 -31 -31 -30 -30 -30 -30 -29 -29 -29 -29 -29 -29 -29
-34 -34 -34 -34 -35 -35 -35 -35 -35 -35 -35 -36 -35 -35 -35 -35 -35 -35 -36 -35 -34 -34 -33 -33 -32 -32 -32 -31 -31 -31 -31 -31 -31 -31 -30 -30 -30 -29 -30 -30 -29 -28 -28
-34 -35 -35 -35 -35 -35 -36 -36 -36 -36 -36 -37 -36 -36 -35 -35 -35 -35 -35 -35 -34 -33 -33 -33 -32 -32 -32 -32 -32 -32 -32 -32 -32 -33 -32 -32 -32 -31 -31 -31 -30 -30 -29
-35 -35 -35 -36 -36 -36 -36 -37 -37 -37 -38 -38 -37 -36 -36 -35 -35 -35 -35 -35 -34 -33 -33 -33 -32 -32 -32 -32 -31 -32 -33 -33 -34 -33 -33 -33 -33 -32 -31 -31 -31 -31 -30
-36 -36 -36 -36 -36 -37 -37 -37 -38 -38 -38 -38 -38 -37 -37 -36 -36 -36 -35 -35 -34 -33 -33 -33 -32 -32 -32 -32 -32 -33 -34 -35 -34 -34 -34 -34 -34 -33 -32 -32 -32 -32 -32
-37 -37 -37 -37 -37 -37 -38 -38 -38 -38 -39 -39 -39 -38 -37 -37 -36 -36 -35 -35 -34 -33 -33 -33 -32 -32 -32 -33 -33 -34 -35 -35 -35 -35 -35 -35 -35 -33 -33 -32 -33 -33 -33
-37 -37 -37 -37 -38 -38 -39 -39 -39 -39 -39 -38 -38 -39 -38 -37 -36 -36 -35 -34 -34 -34 -34 -33 -33 -34 -34 -34 -34 -35 -35 -35 -35 -36 -36 -36 -36 -35 -35 -34 -33 -34 -34
-38 -38 -38 -38 -39 -39 -39 -39 -39 -39 -39 -38 -38 -38 -38 -37 -37 -36 -35 -35 -34 -34 -34 -35 -35 -35 -35 -35 -35 -35 -35 -35 -35 -36 -37 -37 -36 -36 -36 -35 -35 -35 -35
-39 -39 -39 -39 -39 -39 -39 -39 -39 -39 -39 -39 -38 -37 -37 -37 -36 -36 -35 -35 -35 -35 -36 -36 -36 -36 -36 -36 -35 -35 -35 -35 -35 -36 -37 -37 -37 -37 -36 -36 -36 -35 -35
-39 -39 -40 -40 -40 -40 -40 -39 -39 -39 -39 -39 -38 -37 -37 -36 -36 -36 -35 -35 -35 -36 -36 -36 -36 -36 -36 -36 -36 -35 -35 -35 -36 -36 -37 -37 -37 -37 -37 -37 -37 -36 -36
-39 -40 -40 -40 -40 -40 -40 -40 -40 -39 -39 -38 -38 -37 -37 -36 -36 -36 -35 -35 -36 -37 -37 -37 -37 -37 -37 -37 -36 -36 -36 -35 -36 -36 -36 -36 -36 -37 -37 -37 -37 -37 -37
-40 -40 -40 -40 -40 -40 -40 -40 -39 -39 -39 -38 -37 -37 -37 -36 -36 -36 -36 -36 -36 -37 -37 -37 -37 -37 -37 -37 -37 -37 -36 -36 -36 -36 -36 -36 -36 -36 -37 -38 -38 -38 -37
-40 -39 -39 -39 -39 -39 -39 -39 -39 -39 -38 -38 -37 -37 -36 -36 -36 -36 -36 -36 -36 -37 -37 -37 -37 -37 -37 -37 -37 -37 -37 -36 -36 -36 -36 -36 -36 -36 -37 -38 -38 -38 -38
-39 -39 -39 -39 -39 -39 -39 -39 -39 -39 -38 -37 -37 -37 -36 -36 -36 -36 -36 -36 -36 -37 -37 -37 -37 -37 -37 -37 -37 -37 -37 -37 -37 -37 -36 -36 -36 -37 -37 -38 -37 -37 -37

GFSGL_500_temp_027.txt.gz
Temp
-20 -20 -21 -22 -22 -22 -22 -22 -23 -23 -23 -23 -23 -23 -23 -23 -23 -23 -22 -22 -22 -22 -22 -22 -23 -22 -22 -22 -22 -21 -21 -20 -19 -17 -17 -19 -18 -19 -20 -20 -20 -20 -19
-22 -22 -23 -23 -23 -23 -23 -23 -23 -23 -23 -23 -23 -23 -23 -24 -23 -23 -23 -23 -23 -23 -23 -23 -23 -23 -23 -23 -23 -23 -22 -22 -21 -19 -18 -18 -19 -19 -19 -19 -20 -20 -19
-23 -23 -23 -23 -24 -24 -24 -24 -24 -24 -24 -24 -24 -24 -24 -24 -24 -24 -24 -24 -24 -24 -24 -24 -24 -24 -24 -24 -24 -24 -23 -23 -23 -22 -21 -20 -18 -20 -20 -20 -20 -20 -20
-23 -24 -24 -24 -24 -25 -25 -25 -25 -25 -25 -25 -25 -25 -25 -25 -25 -25 -25 -26 -26 -26 -27 -27 -27 -27 -27 -26 -26 -26 -26 -25 -24 -23 -22 -22 -21 -20 -20 -20 -21 -21 -20
-24 -25 -25 -25 -25 -25 -26 -26 -26 -26 -26 -26 -26 -26 -26 -26 -27 -27 -28 -28 -29 -29 -30 -30 -30 -30 -30 -29 -28 -28 -27 -27 -26 -26 -24 -23 -22 -22 -21 -21 -21 -21 -21
-25 -26 -26 -26 -26 -26 -26 -26 -26 -26 -26 -27 -27 -28 -29 -29 -30 -30 -31 -31 -31 -31 -31 -31 -31 -30 -30 -30 -30 -29 -29 -28 -28 -27 -27 -26 -25 -24 -22 -21 -21 -21 -21
-26 -26 -26 -27 -27 -27 -27 -27 -27 -27 -28 -29 -30 -31 -31 -31 -32 -32 -32 -32 -32 -32 -32 -31 -31 -31 -30 -30 -30 -30 -29 -29 -29 -28 -28 -28 -27 -27 -26 -25 -23 -22 -21
-27 -27 -27 -27 -27 -28 -28 -28 -29 -30 -31 -31 -32 -32 -32 -32 -32 -32 -32 -32 -32 -32 -32 -32 -32 -31 -31 -30 -30 -30 -30 -30 -30 -29 -28 -28 -28 -28 -28 -27 -26 -24 -23
-27 -28 -28 -28 -28 -29 -30 -30 -31 -32 -32 -32 -33 -33 -33 -33 -33 -33 -33 -33 -33 -33 -33 -32 -32 -32 -32 -32 -31 -31 -31 -31 -31 -31 -30 -30 -30 -30 -30 -29 -28 -27 -26
-28 -29 -29 -30 -30 -31 -32 -32 -33 -33 -33 -33 -33 -33 -33 -33 -33 -33 -33 -33 -33 -33 -33 -33 -33 -33 -32 -33 -33 -33 -32 -32 -31 -31 -31 -31 -30 -30 -30 -30 -30 -29 -28
-29 -30 -31 -31 -32 -32 -33 -33 -33 -34 -34 -34 -34 -34 -34 -34 -34 -34 -34 -34 -34 -33 -33 -33 -33 -34 -34 -33 -33 -32 -32 -32 -31 -31 -31 -31 -31 -31 -31 -30 -30 -29 -29
-31 -31 -32 -33 -33 -33 -34 -34 -34 -34 -34 -34 -34 -35 -35 -35 -35 -35 -35 -34 -34 -34 -33 -34 -34 -34 -34 -34 -33 -33 -32 -32 -31 -31 -31 -31 -31 -30 -30 -30 -30 -30 -30
-32 -32 -33 -33 -34 -34 -34 -34 -35 -35 -35 -35 -35 -35 -35 -35 -35 -35 -35 -35 -35 -35 -35 -35 -35 -34 -34 -34 -33 -33 -32 -32 -31 -31 -31 -31 -31 -30 -30 -30 -30 -30 -29
-33 -33 -33 -34 -34 -34 -34 -35 -35 -35 -35 -36 -36 -36 -36 -36 -36 -36 -36 -36 -36 -36 -35 -36 -35 -35 -34 -34 -33 -33 -32 -32 -32 -31 -31 -31 -31 -31 -31 -30 -30 -30 -29
-33 -33 -34 -34 -34 -35 -35 -36 -36 -36 -36 -36 -36 -36 -37 -37 -37 -37 -37 -36 -36 -36 -36 -36 -35 -35 -34 -33 -33 -33 -32 -32 -31 -31 -31 -31 -32 -32 -33 -33 -32 -31 -31
-34 -34 -34 -35 -35 -36 -36 -37 -37 -37 -37 -37 -37 -38 -38 -38 -37 -37 -37 -37 -37 -36 -36 -35 -35 -34 -34 -34 -33 -33 -33 -32 -32 -32 -32 -33 -34 -35 -34 -34 -34 -34 -33
-35 -35 -35 -35 -36 -37 -37 -37 -37 -38 -38 -38 -39 -39 -39 -39 -38 -37 -37 -37 -37 -37 -36 -35 -35 -34 -34 -34 -33 -33 -33 -33 -33 -33 -34 -35 -35 -35 -35 -35 -35 -35 -34
-36 -36 -36 -37 -37 -37 -37 -38 -38 -39 -39 -39 -39 -39 -39 -39 -38 -38 -38 -38 -37 -36 -36 -35 -35 -34 -34 -34 -34 -34 -34 -34 -34 -35 -35 -35 -35 -35 -35 -36 -36 -35 -34
-36 -37 -37 -37 -37 -37 -38 -39 -39 -39 -39 -39 -39 -39 -39 -39 -39 -38 -38 -37 -37 -36 -36 -35 -35 -35 -35 -35 -35 -35 -35 -35 -35 -35 -35 -35 -35 -36 -36 -36 -36 -36 -35
-37 -37 -37 -37 -38 -38 -39 -39 -39 -40 -40 -40 -40 -39 -39 -39 -39 -38 -37 -37 -36 -36 -36 -36 -36 -36 -36 -36 -36 -36 -36 -35 -35 -35 -35 -35 -36 -36 -36 -36 -37 -36 -36
-37 -37 -37 -38 -39 -39 -40 -40 -40 -40 -40 -40 -40 -40 -39 -39 -39 -38 -37 -37 -36 -36 -36 -36 -36 -36 -37 -36 -37 -37 -36 -36 -36 -35 -35 -35 -36 -36 -36 -36 -37 -37 -37
-37 -38 -38 -38 -39 -40 -40 -40 -40 -40 -40 -40 -40 -40 -40 -39 -39 -38 -37 -37 -36 -36 -37 -37 -37 -37 -37 -37 -37 -37 -37 -37 -36 -36 -36 -36 -36 -36 -36 -36 -37 -37 -37
-38 -38 -38 -39 -40 -40 -40 -40 -40 -40 -40 -40 -40 -40 -40 -39 -38 -38 -37 -37 -37 -36 -36 -37 -37 -37 -37 -37 -37 -37 -37 -37 -37 -37 -36 -36 -36 -36 -36 -36 -37 -37 -37
-38 -38 -40 -40 -40 -39 -39 -39 -39 -39 -40 -40 -40 -40 -39 -39 -38 -38 -37 -37 -37 -37 -37 -37 -37 -37 -37 -37 -37 -37 -37 -37 -37 -37 -37 -36 -36 -36 -36 -37 -37 -38 -38
-39 -40 -40 -39 -39 -39 -40 -40 -39 -39 -39 -39 -39 -39 -39 -38 -38 -37 -37 -37 -37 -37 -37 -37 -37 -37 -37 -37 -37 -37 -37 -37 -37 -37 -37 -37 -37 -37 -37 -37 -37 -37 -38
-40 -39 -40 -39 -39 -40 -40 -40 -40 -40 -39 -39 -39 -39 -39 -38 -38 -37 -37 -37 -37 -37 -37 -37 -37 -37 -37 -37 -37 -37 -37 -37 -37 -37 -37 -38 -38 -37 -37 -37 -37 -37 -37

GFSGL_500_temp_030.txt.gz
Temp
-18 -18 -19 -19 -20 -21 -21 -22 -23 -23 -23 -23 -23 -23 -23 -24 -24 -24 -24 -24 -24 -24 -24 -24 -24 -24 -24 -23 -23 -23 -23 -23 -22 -21 -21 -20 -20 -20 -20 -20 -20 -20 -20
-19 -19 -20 -20 -21 -22 -23 -23 -24 -24 -24 -24 -24 -24 -24 -24 -24 -24 -25 -25 -25 -25 -25 -25 -24 -24 -24 -24 -24 -24 -24 -23 -23 -22 -22 -22 -21 -21 -21 -21 -21 -20 -20
-20 -20 -20 -22 -22 -23 -24 -24 -24 -24 -25 -25 -25 -25 -25 -25 -25 -25 -26 -26 -26 -26 -26 -26 -25 -25 -25 -26 -26 -26 -25 -25 -25 -24 -22 -22 -22 -22 -22 -22 -21 -21 -21
-20 -21 -22 -23 -23 -24 -24 -25 -25 -25 -25 -26 -26 -26 -26 -26 -26 -26 -26 -26 -26 -27 -27 -27 -28 -28 -28 -28 -28 -28 -28 -28 -28 -28 -27 -25 -25 -24 -22 -22 -22 -21 -21
-21 -22 -23 -24 -24 -25 -25 -26 -26 -26 -26 -26 -26 -27 -27 -27 -27 -27 -28 -28 -28 -28 -29 -30 -30 -30 -30 -31 -30 -30 -30 -30 -29 -29 -29 -28 -27 -27 -25 -24 -23 -23 -22
-23 -24 -24 -25 -26 -26 -26 -27 -27 -27 -27 -27 -27 -28 -28 -29 -29 -29 -30 -30 -30 -31 -31 -31 -31 -31 -31 -31 -31 -31 -31 -30 -30 -30 -30 -29 -29 -28 -28 -27 -26 -25 -23
-24 -25 -26 -26 -26 -27 -27 -27 -28 -28 -28 -29 -29 -29 -30 -30 -31 -31 -31 -32 -32 -32 -32 -32 -32 -32 -32 -32 -32 -32 -31 -31 -31 -31 -30 -30 -29 -29 -29 -29 -28 -26 -26
-25 -26 -26 -26 -27 -27 -28 -28 -29 -29 -30 -30 -31 -31 -32 -32 -32 -32 -32 -33 -33 -33 -33 -33 -33 -33 -33 -32 -32 -32 -31 -32 -32 -31 -31 -31 -30 -30 -30 -30 -29 -28 -27
-26 -26 -26 -27 -28 -28 -29 -30 -30 -31 -31 -32 -32 -32 -33 -33 -33 -33 -33 -33 -33 -33 -33 -34 -33 -33 -33 -33 -32 -32 -32 -32 -32 -32 -33 -32 -32 -32 -31 -31 -30 -30 -29
-26 -26 -27 -27 -28 -29 -30 -31 -31 -32 -32 -33 -33 -33 -34 -34 -34 -34 -34 -34 -34 -34 -34 -34 -34 -34 -33 -33 -33 -32 -32 -33 -34 -34 -33 -33 -32 -32 -32 -31 -31 -30 -30
-27 -27 -28 -28 -29 -30 -31 -32 -32 -33 -33 -34 -34 -34 -34 -34 -34 -35 -35 -35 -34 -34 -34 -34 -34 -34 -34 -34 -34 -33 -33 -33 -34 -33 -33 -33 -32 -32 -32 -31 -31 -30 -30
-27 -28 -29 -30 -30 -32 -32 -33 -33 -34 -34 -34 -34 -35 -35 -35 -35 -35 -35 -35 -35 -35 -35 -35 -35 -34 -34 -34 -34 -34 -34 -34 -34 -33 -33 -32 -32 -32 -32 -31 -31 -31 -31
-28 -29 -30 -31 -32 -32 -33 -33 -34 -34 -34 -34 -35 -35 -35 -35 -36 -36 -36 -36 -36 -36 -36 -36 -36 -35 -35 -35 -35 -35 -35 -34 -34 -33 -33 -32 -32 -32 -32 -31 -31 -31 -31
-29 -30 -31 -32 -32 -33 -33 -34 -34 -35 -35 -35 -36 -36 -36 -36 -36 -37 -37 -37 -37 -38 -38 -38 -37 -36 -36 -36 -36 -36 -35 -34 -34 -33 -33 -32 -32 -32 -31 -31 -31 -31 -31
-30 -31 -32 -32 -33 -34 -34 -34 -35 -36 -36 -36 -36 -36 -36 -37 -37 -38 -38 -38 -39 -38 -38 -38 -37 -37 -37 -37 -36 -35 -35 -34 -34 -33 -33 -32 -32 -32 -31 -31 -31 -32 -32
-32 -33 -33 -34 -34 -34 -35 -35 -36 -36 -37 -37 -37 -37 -37 -38 -38 -39 -39 -39 -39 -39 -39 -38 -38 -38 -37 -36 -36 -35 -35 -34 -34 -34 -33 -32 -32 -32 -33 -34 -34 -34 -35
-33 -34 -34 -35 -35 -35 -36 -36 -36 -37 -37 -37 -37 -38 -38 -39 -39 -39 -39 -39 -39 -39 -39 -38 -38 -37 -36 -36 -36 -35 -35 -35 -35 -35 -34 -34 -34 -34 -35 -35 -35 -35 -35
-34 -35 -35 -35 -35 -36 -36 -36 -37 -37 -37 -38 -38 -38 -39 -39 -39 -40 -40 -39 -39 -39 -39 -38 -37 -37 -36 -36 -36 -36 -36 -36 -36 -36 -36 -35 -35 -35 -35 -35 -35 -35 -36
-35 -35 -36 -36 -36 -36 -36 -37 -37 -37 -38 -38 -39 -39 -39 -40 -40 -40 -40 -40 -40 -39 -38 -38 -37 -37 -37 -36 -36 -36 -36 -36 -36 -36 -36 -36 -36 -35 -35 -35 -35 -36 -36
-36 -36 -36 -36 -37 -37 -37 -37 -37 -37 -38 -38 -39 -40 -40 -40 -40 -40 -40 -40 -40 -39 -38 -37 -37 -37 -37 -37 -37 -37 -37 -37 -37 -37 -36 -36 -36 -36 -35 -35 -36 -36 -36
-35 -36 -37 -37 -37 -37 -37 -38 -38 -38 -38 -39 -39 -40 -40 -40 -40 -40 -40 -40 -40 -38 -38 -37 -37 -37 -37 -37 -37 -37 -37 -37 -37 -37 -37 -37 -36 -36 -36 -36 -36 -36 -36
-36 -37 -37 -37 -37 -37 -38 -38 -38 -38 -39 -40 -40 -40 -40 -40 -40 -40 -40 -40 -40 -38 -38 -37 -37 -37 -37 -37 -37 -37 -37 -37 -37 -37 -37 -37 -37 -37 -36 -36 -36 -36 -36
-37 -37 -37 -37 -38 -38 -38 -38 -38 -39 -40 -40 -40 -39 -40 -40 -40 -40 -40 -40 -39 -38 -38 -37 -37 -37 -37 -37 -37 -37 -37 -37 -37 -37 -37 -37 -37 -37 -37 -36 -36 -37 -37
-37 -38 -38 -38 -38 -38 -38 -39 -39 -39 -39 -40 -40 -40 -40 -39 -39 -39 -40 -39 -39 -38 -37 -37 -37 -37 -37 -37 -37 -37 -37 -37 -37 -37 -37 -37 -37 -37 -37 -37 -37 -37 -37
-38 -38 -38 -38 -39 -39 -39 -39 -39 -39 -39 -40 -40 -40 -40 -40 -39 -39 -39 -39 -38 -38 -37 -37 -37 -37 -37 -37 -37 -37 -37 -37 -37 -37 -37 -37 -37 -37 -37 -37 -37 -37 -37
-38 -39 -39 -39 -39 -39 -39 -39 -39 -39 -40 -40 -40 -40 -40 -40 -39 -39 -39 -38 -38 -38 -37 -37 -37 -37 -37 -37 -37 -37 -37 -37 -37 -38 -38 -37 -37 -37 -37 -37 -37 -37 -37

GFSGL_500_temp_033.txt.gz
Temp
-16 -16 -16 -16 -17 -17 -18 -18 -19 -19 -20 -21 -22 -22 -23 -23 -24 -24 -24 -25 -25 -25 -25 -25 -25 -25 -25 -25 -25 -25 -25 -25 -24 -24 -24 -24 -23 -23 -23 -23 -22 -22 -22
-16 -16 -17 -17 -17 -18 -19 -19 -20 -21 -21 -22 -23 -24 -24 -24 -25 -25 -25 -25 -26 -26 -26 -26 -26 -26 -26 -26 -26 -26 -26 -26 -26 -25 -25 -24 -24 -24 -23 -23 -23 -23 -22
-17 -17 -17 -18 -18 -19 -20 -21 -21 -22 -23 -23 -24 -24 -25 -25 -25 -26 -26 -26 -27 -27 -27 -27 -27 -27 -28 -28 -28 -28 -28 -28 -29 -28 -27 -27 -26 -25 -25 -24 -23 -23 -23
-17 -18 -18 -19 -19 -20 -21 -22 -22 -23 -24 -24 -25 -25 -26 -26 -26 -27 -27 -27 -28 -28 -28 -29 -29 -29 -30 -30 -30 -30 -30 -30 -30 -30 -29 -29 -28 -28 -27 -26 -25 -25 -24
-18 -18 -19 -20 -20 -21 -22 -23 -23 -24 -25 -26 -26 -26 -26 -27 -27 -28 -29 -29 -29 -30 -30 -30 -31 -31 -31 -31 -31 -31 -31 -31 -31 -31 -30 -30 -30 -29 -29 -28 -27 -27 -27
-19 -19 -20 -20 -21 -22 -23 -24 -24 -25 -26 -26 -26 -27 -27 -28 -28 -29 -30 -30 -31 -31 -31 -32 -32 -32 -32 -32 -32 -32 -32 -32 -32 -32 -31 -30 -30 -30 -30 -29 -29 -28 -27
-20 -20 -20 -21 -22 -23 -24 -25 -26 -26 -27 -27 -27 -27 -28 -29 -30 -30 -31 -32 -32 -32 -32 -33 -33 -33 -33 -33 -33 -33 -33 -33 -33 -32 -31 -31 -31 -31 -31 -31 -30 -30 -29
-20 -21 -22 -23 -23 -24 -25 -26 -26 -27 -27 -27 -28 -29 -29 -30 -31 -32 -32 -32 -33 -33 -33 -33 -33 -33 -34 -34 -34 -33 -33 -33 -33 -32 -32 -32 -32 -32 -31 -31 -31 -31 -31
-22 -22 -23 -24 -25 -25 -26 -26 -27 -27 -28 -28 -29 -30 -31 -32 -32 -32 -33 -33 -33 -33 -33 -34 -34 -34 -34 -34 -34 -34 -33 -33 -33 -33 -33 -33 -32 -32 -33 -32 -32 -32 -32
-23 -23 -24 -25 -25 -26 -26 -27 -27 -28 -28 -29 -31 -31 -32 -32 -33 -33 -33 -34 -34 -34 -34 -34 -34 -35 -35 -35 -35 -34 -33 -33 -33 -33 -33 -34 -34 -34 -34 -33 -33 -32 -32
-24 -25 -25 -25 -26 -27 -27 -27 -28 -29 -30 -31 -32 -32 -33 -33 -34 -34 -34 -35 -35 -35 -35 -35 -35 -36 -36 -36 -36 -36 -34 -34 -34 -34 -34 -34 -34 -34 -34 -33 -33 -32 -32
-25 -25 -26 -26 -27 -28 -28 -29 -29 -30 -31 -32 -33 -33 -34 -34 -34 -35 -36 -36 -36 -36 -35 -35 -37 -37 -37 -37 -37 -37 -36 -35 -35 -35 -35 -35 -35 -34 -34 -33 -33 -32 -32
-26 -26 -27 -28 -28 -28 -29 -30 -31 -32 -33 -33 -34 -34 -35 -35 -35 -36 -36 -36 -36 -36 -36 -37 -38 -38 -38 -38 -38 -37 -36 -36 -36 -36 -36 -35 -35 -34 -34 -33 -33 -32 -32
-27 -27 -28 -28 -29 -30 -30 -31 -32 -33 -34 -34 -35 -35 -35 -35 -36 -36 -37 -37 -37 -37 -38 -38 -39 -39 -39 -39 -38 -37 -37 -37 -37 -36 -36 -35 -34 -34 -33 -33 -32 -32 -32
-28 -28 -29 -29 -30 -31 -32 -32 -33 -34 -35 -35 -35 -35 -36 -36 -36 -37 -37 -37 -37 -38 -39 -39 -39 -39 -39 -39 -38 -38 -37 -37 -36 -36 -35 -35 -34 -34 -33 -33 -33 -32 -32
-28 -29 -30 -30 -31 -32 -33 -34 -34 -35 -35 -35 -36 -36 -36 -37 -37 -37 -37 -38 -38 -38 -39 -39 -40 -40 -39 -39 -38 -38 -37 -36 -36 -36 -36 -35 -35 -35 -34 -34 -34 -33 -33
-29 -30 -31 -31 -32 -33 -34 -35 -35 -35 -35 -36 -36 -36 -37 -37 -38 -38 -38 -38 -38 -39 -40 -40 -40 -40 -39 -39 -38 -37 -37 -37 -37 -36 -36 -36 -36 -36 -35 -35 -35 -35 -35
-31 -31 -32 -33 -34 -35 -35 -35 -36 -36 -36 -36 -37 -37 -37 -38 -38 -38 -38 -38 -39 -40 -40 -40 -40 -40 -40 -38 -38 -37 -37 -37 -37 -37 -37 -36 -36 -36 -36 -36 -36 -35 -35
-32 -33 -33 -34 -35 -35 -36 -36 -36 -36 -36 -37 -37 -38 -38 -38 -38 -38 -38 -39 -40 -40 -40 -40 -40 -40 -39 -38 -38 -38 -38 -37 -37 -37 -37 -37 -37 -37 -37 -36 -36 -36 -35
-33 -34 -34 -35 -35 -36 -36 -36 -36 -37 -37 -38 -38 -38 -38 -38 -38 -38 -39 -40 -40 -40 -40 -40 -40 -40 -39 -38 -38 -38 -38 -37 -37 -37 -37 -37 -37 -37 -37 -37 -36 -36 -36
-34 -35 -35 -36 -36 -36 -36 -37 -37 -37 -38 -38 -38 -38 -38 -38 -38 -40 -40 -40 -40 -40 -40 -40 -40 -40 -39 -38 -38 -38 -37 -37 -37 -37 -37 -37 -37 -37 -37 -37 -37 -36 -36
-35 -36 -36 -36 -36 -37 -37 -37 -38 -38 -38 -38 -38 -38 -39 -39 -39 -40 -40 -40 -40 -40 -40 -40 -40 -40 -39 -38 -38 -37 -37 -37 -37 -37 -37 -37 -37 -37 -37 -37 -37 -37 -37
-36 -36 -36 -37 -37 -37 -38 -38 -38 -38 -38 -38 -39 -39 -39 -39 -40 -40 -40 -40 -40 -39 -40 -40 -40 -40 -39 -38 -37 -37 -37 -37 -37 -37 -37 -37 -37 -37 -37 -37 -37 -37 -37
-36 -36 -37 -37 -38 -38 -38 -38 -38 -38 -39 -39 -39 -39 -39 -39 -39 -40 -40 -40 -41 -40 -40 -39 -39 -39 -38 -38 -37 -37 -37 -37 -37 -37 -37 -37 -37 -38 -38 -37 -37 -37 -37
-37 -38 -38 -38 -38 -38 -39 -39 -39 -40 -39 -39 -39 -39 -39 -40 -40 -40 -40 -40 -40 -40 -40 -39 -39 -38 -38 -38 -37 -37 -37 -37 -37 -37 -37 -37 -37 -38 -38 -37 -37 -37 -37
-38 -38 -38 -38 -39 -39 -39 -40 -39 -39 -39 -39 -39 -40 -40 -40 -40 -40 -40 -40 -40 -40 -39 -39 -38 -38 -38 -37 -37 -37 -37 -37 -37 -37 -37 -37 -37 -37 -38 -38 -38 -37 -37

GFSGL_500_temp_036.txt.gz
Temp
-14 -15 -15 -15 -15 -16 -17 -16 -17 -17 -17 -18 -18 -18 -19 -19 -20 -21 -22 -23 -24 -24 -25 -25 -26 -26 -26 -27 -27 -27 -27 -27 -27 -26 -26 -26 -26 -26 -26 -25 -25 -25 -25
-15 -15 -15 -15 -16 -17 -17 -17 -17 -18 -18 -18 -19 -19 -20 -20 -21 -22 -23 -24 -25 -25 -26 -26 -27 -27 -27 -27 -28 -28 -29 -29 -29 -28 -28 -28 -28 -27 -27 -27 -27 -26 -25
-15 -15 -15 -16 -17 -18 -18 -18 -18 -18 -19 -19 -20 -20 -21 -22 -23 -23 -24 -25 -26 -26 -26 -26 -27 -28 -28 -29 -30 -30 -30 -30 -30 -30 -29 -30 -29 -29 -29 -28 -28 -28 -28
-15 -16 -16 -17 -18 -18 -18 -19 -19 -19 -19 -20 -21 -21 -22 -23 -24 -25 -25 -26 -26 -27 -27 -28 -29 -29 -30 -31 -31 -31 -31 -31 -31 -31 -31 -30 -30 -30 -30 -29 -29 -29 -28
-16 -17 -17 -18 -18 -19 -19 -19 -19 -20 -20 -21 -22 -22 -23 -24 -25 -26 -26 -26 -27 -28 -28 -29 -30 -31 -31 -32 -32 -32 -32 -32 -32 -31 -31 -31 -30 -30 -30 -30 -29 -29 -29
-17 -17 -18 -18 -19 -19 -20 -19 -20 -21 -21 -22 -23 -24 -25 -25 -26 -26 -27 -27 -28 -29 -30 -31 -31 -32 -32 -32 -32 -32 -32 -32 -32 -32 -31 -31 -31 -32 -32 -31 -31 -30 -29
-18 -18 -18 -19 -20 -20 -20 -20 -21 -21 -22 -23 -24 -25 -26 -26 -27 -27 -28 -29 -29 -31 -31 -32 -32 -33 -33 -33 -33 -33 -33 -33 -33 -32 -32 -32 -32 -32 -32 -31 -31 -30 -30
-19 -19 -20 -20 -20 -20 -21 -21 -22 -23 -24 -24 -25 -26 -27 -27 -28 -28 -29 -30 -31 -32 -32 -33 -33 -34 -34 -34 -34 -33 -33 -33 -34 -34 -34 -33 -33 -33 -32 -31 -31 -31 -31
-20 -20 -20 -20 -21 -21 -22 -22 -23 -24 -25 -26 -26 -27 -27 -28 -29 -30 -31 -32 -32 -33 -34 -34 -34 -35 -35 -35 -34 -34 -34 -35 -35 -35 -35 -35 -34 -34 -33 -32 -32 -31 -32
-20 -20 -21 -21 -22 -22 -23 -23 -24 -25 -26 -27 -27 -28 -28 -29 -30 -31 -32 -33 -33 -34 -34 -35 -35 -36 -36 -36 -35 -35 -35 -36 -36 -37 -37 -36 -35 -35 -35 -34 -33 -33 -32
-21 -21 -22 -22 -23 -23 -24 -25 -25 -26 -27 -27 -28 -29 -30 -31 -32 -32 -33 -34 -34 -35 -35 -36 -36 -36 -37 -36 -37 -37 -37 -37 -38 -38 -37 -36 -36 -36 -36 -36 -35 -35 -34
-22 -22 -23 -23 -23 -24 -25 -26 -26 -27 -28 -28 -29 -30 -31 -32 -33 -34 -34 -35 -35 -36 -36 -36 -36 -37 -37 -37 -38 -38 -38 -38 -38 -38 -38 -37 -37 -37 -37 -36 -36 -35 -34
-22 -23 -23 -24 -25 -26 -26 -27 -27 -28 -29 -30 -31 -32 -33 -33 -34 -35 -35 -35 -36 -36 -36 -37 -37 -38 -38 -38 -38 -39 -39 -39 -39 -38 -38 -37 -37 -37 -36 -36 -35 -35 -34
-23 -24 -24 -25 -26 -27 -27 -28 -28 -29 -30 -31 -32 -33 -34 -35 -35 -35 -35 -36 -36 -36 -37 -37 -38 -38 -38 -38 -38 -39 -39 -39 -39 -38 -37 -37 -37 -36 -36 -35 -35 -35 -34
-24 -25 -26 -26 -27 -27 -28 -29 -30 -30 -32 -32 -33 -34 -35 -35 -35 -36 -36 -36 -36 -37 -37 -38 -38 -38 -38 -39 -39 -40 -40 -40 -39 -38 -37 -37 -37 -36 -37 -36 -36 -35 -35
-26 -26 -27 -27 -28 -28 -29 -30 -31 -32 -32 -33 -34 -35 -35 -36 -36 -36 -36 -37 -37 -38 -38 -38 -38 -38 -39 -39 -40 -40 -40 -40 -38 -38 -37 -37 -37 -37 -37 -37 -36 -36 -35
-27 -27 -28 -29 -29 -30 -30 -31 -32 -33 -33 -34 -35 -35 -36 -36 -36 -36 -37 -37 -38 -38 -38 -38 -38 -39 -39 -40 -40 -40 -40 -40 -38 -38 -38 -38 -37 -37 -37 -37 -37 -36 -36
-28 -29 -30 -30 -31 -31 -32 -32 -33 -33 -34 -35 -35 -36 -36 -36 -37 -37 -37 -38 -38 -38 -38 -38 -39 -39 -40 -40 -40 -40 -40 -39 -38 -38 -38 -38 -37 -37 -37 -37 -37 -37 -36
-30 -31 -31 -31 -32 -32 -33 -33 -33 -34 -34 -35 -36 -36 -37 -37 -37 -38 -38 -38 -38 -38 -38 -38 -39 -40 -41 -41 -40 -40 -40 -39 -39 -38 -38 -38 -37 -37 -37 -37 -37 -37 -36
-31 -32 -32 -32 -33 -33 -33 -34 -34 -35 -35 -36 -36 -37 -37 -38 -38 -38 -38 -38 -38 -38 -39 -39 -39 -40 -41 -41 -40 -40 -40 -39 -39 -38 -38 -38 -37 -37 -37 -37 -37 -37 -37
-32 -32 -33 -33 -33 -34 -34 -35 -35 -36 -36 -37 -37 -37 -38 -38 -38 -38 -38 -39 -39 -40 -39 -39 -40 -40 -40 -40 -40 -40 -40 -39 -38 -38 -38 -38 -37 -37 -37 -37 -37 -37 -37
-33 -33 -34 -34 -34 -35 -35 -36 -36 -36 -37 -37 -38 -38 -38 -38 -38 -38 -39 -39 -39 -40 -40 -40 -40 -40 -40 -40 -40 -40 -40 -39 -38 -38 -38 -37 -37 -37 -37 -37 -37 -37 -37
-34 -34 -34 -35 -35 -36 -36 -36 -37 -37 -38 -38 -38 -38 -38 -39 -39 -39 -39 -39 -39 -39 -39 -40 -40 -41 -40 -40 -40 -39 -39 -38 -38 -38 -38 -37 -37 -37 -37 -37 -37 -38 -37
-34 -35 -36 -36 -36 -36 -37 -37 -37 -38 -38 -38 -38 -39 -39 -39 -39 -39 -39 -39 -40 -40 -40 -40 -40 -41 -41 -40 -39 -39 -39 -38 -38 -38 -38 -38 -37 -37 -37 -37 -37 -37 -38
-36 -36 -36 -37 -37 -37 -37 -38 -38 -38 -39 -39 -39 -39 -39 -39 -39 -39 -39 -40 -40 -40 -40 -40 -40 -40 -40 -40 -39 -39 -38 -38 -38 -38 -38 -37 -37 -37 -37 -37 -38 -38 -38
-37 -37 -37 -37 -38 -38 -38 -38 -39 -39 -39 -39 -39 -39 -39 -39 -39 -39 -40 -40 -40 -40 -40 -40 -40 -40 -40 -39 -39 -38 -38 -38 -38 -37 -37 -37 -37 -37 -37 -38 -38 -38 -38

GFSGL_500_temp_042.txt.gz
Temp
-14 -14 -14 -14 -14 -14 -14 -14 -14 -14 -14 -14 -15 -15 -16 -17 -17 -17 -17 -18 -18 -18 -19 -19 -19 -20 -20 -21 -22 -23 -24 -25 -25 -25 -26 -27 -28 -28 -29 -30 -31 -31 -31
-14 -14 -14 -15 -15 -15 -15 -14 -14 -15 -15 -15 -16 -17 -17 -17 -17 -18 -18 -18 -18 -19 -19 -20 -20 -21 -22 -23 -24 -25 -26 -26 -27 -27 -28 -29 -30 -31 -31 -32 -32 -32 -32
-14 -14 -15 -15 -15 -15 -15 -15 -15 -15 -16 -16 -17 -17 -18 -18 -18 -19 -19 -19 -19 -20 -20 -21 -21 -23 -24 -25 -26 -26 -27 -27 -28 -29 -30 -31 -31 -32 -32 -33 -32 -33 -32
-14 -14 -15 -15 -15 -15 -15 -15 -16 -16 -17 -17 -18 -18 -18 -19 -19 -19 -19 -19 -20 -21 -21 -22 -23 -24 -25 -26 -27 -27 -28 -29 -30 -31 -32 -33 -33 -34 -34 -33 -33 -33 -33
-14 -14 -15 -15 -15 -15 -16 -16 -17 -18 -18 -18 -18 -19 -19 -19 -19 -20 -20 -20 -21 -21 -22 -24 -25 -26 -26 -27 -28 -29 -30 -31 -31 -32 -33 -34 -34 -34 -34 -34 -34 -33 -33
-15 -15 -15 -16 -16 -17 -17 -18 -18 -18 -18 -19 -19 -19 -20 -20 -20 -20 -21 -21 -22 -23 -24 -25 -26 -27 -28 -28 -29 -30 -31 -32 -33 -34 -35 -35 -35 -35 -35 -35 -34 -33 -33
-15 -15 -16 -16 -17 -17 -18 -18 -18 -19 -19 -19 -20 -20 -20 -21 -21 -21 -22 -23 -23 -24 -25 -27 -28 -28 -29 -30 -31 -32 -33 -33 -34 -35 -36 -36 -36 -36 -36 -35 -35 -35 -35
-15 -16 -16 -17 -17 -18 -18 -19 -19 -19 -19 -20 -20 -21 -21 -21 -22 -22 -23 -24 -25 -26 -27 -28 -28 -29 -30 -31 -32 -33 -34 -35 -35 -35 -36 -37 -37 -37 -37 -36 -36 -36 -37
-16 -16 -17 -17 -18 -18 -19 -19 -19 -20 -20 -20 -21 -21 -22 -22 -23 -24 -24 -25 -26 -27 -28 -29 -29 -30 -31 -32 -32 -33 -34 -36 -36 -36 -37 -37 -37 -38 -38 -37 -37 -37 -37
-16 -17 -17 -18 -18 -18 -19 -19 -20 -20 -20 -21 -21 -22 -22 -23 -24 -25 -26 -26 -27 -28 -29 -30 -30 -31 -32 -33 -33 -34 -36 -36 -36 -37 -37 -37 -38 -38 -38 -38 -38 -38 -38
-17 -17 -18 -18 -19 -19 -19 -20 -20 -21 -21 -21 -22 -23 -24 -25 -26 -26 -27 -28 -29 -29 -30 -31 -31 -32 -33 -33 -34 -36 -36 -37 -37 -37 -37 -37 -38 -38 -38 -39 -39 -39 -38
-18 -18 -19 -19 -19 -19 -19 -20 -21 -21 -22 -22 -23 -24 -25 -26 -27 -28 -29 -29 -30 -30 -31 -31 -32 -33 -33 -34 -35 -36 -37 -37 -37 -37 -37 -38 -38 -38 -39 -39 -40 -39 -38
-18 -19 -19 -19 -19 -20 -20 -21 -21 -22 -23 -24 -24 -25 -26 -27 -28 -29 -30 -30 -30 -31 -32 -32 -33 -33 -34 -35 -36 -37 -37 -37 -37 -37 -38 -38 -39 -39 -38 -39 -40 -39 -39
-19 -19 -19 -20 -20 -21 -22 -22 -22 -23 -24 -25 -26 -27 -27 -28 -29 -30 -30 -30 -31 -32 -33 -33 -33 -34 -35 -36 -36 -37 -37 -37 -38 -38 -38 -39 -39 -39 -39 -40 -40 -39 -39
-19 -20 -21 -21 -22 -22 -22 -23 -24 -25 -25 -26 -27 -28 -29 -29 -30 -30 -31 -31 -32 -33 -33 -33 -34 -35 -36 -36 -36 -37 -37 -38 -38 -39 -39 -39 -39 -39 -39 -40 -40 -39 -38
-21 -21 -22 -22 -23 -23 -24 -25 -25 -26 -27 -28 -28 -29 -30 -30 -31 -31 -32 -32 -33 -33 -34 -35 -35 -36 -36 -36 -37 -37 -38 -38 -39 -39 -39 -39 -39 -39 -40 -40 -40 -39 -38
-22 -22 -23 -24 -24 -25 -25 -26 -27 -27 -28 -29 -30 -30 -30 -31 -32 -32 -33 -33 -34 -34 -35 -35 -36 -36 -36 -37 -37 -37 -38 -39 -39 -39 -39 -39 -39 -39 -40 -40 -40 -39 -38
-24 -24 -25 -25 -26 -26 -27 -27 -28 -29 -29 -30 -30 -31 -32 -32 -33 -33 -34 -34 -34 -35 -35 -36 -36 -36 -37 -37 -38 -38 -39 -39 -39 -39 -39 -39 -40 -39 -40 -40 -39 -39 -38
-25 -25 -26 -26 -27 -27 -28 -29 -30 -30 -31 -31 -32 -32 -33 -33 -34 -34 -35 -35 -35 -36 -36 -36 -37 -37 -37 -38 -38 -38 -38 -39 -39 -39 -39 -40 -40 -40 -40 -40 -39 -38 -38
-26 -27 -27 -28 -29 -29 -30 -30 -31 -31 -32 -33 -33 -34 -34 -34 -35 -35 -35 -35 -36 -36 -36 -37 -37 -38 -38 -38 -38 -39 -39 -39 -39 -39 -39 -39 -40 -40 -40 -40 -39 -38 -38
-28 -29 -29 -30 -30 -31 -31 -31 -32 -33 -33 -34 -34 -34 -34 -35 -35 -35 -36 -36 -37 -37 -37 -37 -38 -38 -38 -38 -39 -39 -39 -39 -39 -39 -40 -40 -40 -40 -40 -40 -39 -38 -38
-30 -30 -31 -31 -31 -31 -32 -33 -33 -34 -34 -35 -35 -35 -35 -35 -36 -36 -37 -37 -37 -37 -37 -38 -38 -38 -38 -39 -39 -38 -39 -39 -40 -40 -40 -40 -40 -40 -40 -39 -38 -38 -38
-31 -32 -32 -32 -33 -33 -34 -34 -35 -35 -35 -35 -35 -35 -36 -36 -37 -37 -37 -37 -37 -38 -38 -38 -38 -38 -39 -39 -39 -39 -40 -40 -40 -41 -40 -40 -40 -40 -40 -39 -38 -38 -38
-33 -33 -34 -34 -34 -35 -35 -35 -35 -35 -35 -36 -36 -37 -37 -37 -37 -37 -37 -38 -38 -38 -38 -39 -38 -39 -39 -39 -39 -40 -40 -41 -41 -41 -41 -40 -40 -40 -39 -39 -38 -38 -38
-35 -35 -35 -35 -36 -36 -36 -36 -36 -36 -36 -37 -37 -37 -38 -38 -38 -38 -38 -38 -38 -38 -39 -39 -39 -39 -39 -40 -40 -40 -41 -41 -41 -41 -40 -40 -40 -39 -39 -38 -38 -38 -38
-36 -36 -36 -36 -36 -36 -36 -37 -37 -37 -37 -37 -38 -38 -38 -38 -39 -38 -38 -39 -39 -39 -40 -40 -40 -40 -39 -40 -40 -40 -41 -41 -41 -40 -40 -40 -39 -39 -39 -38 -38 -38 -38

GFSGL_500_temp_045.txt.gz
Temp
-13 -13 -13 -13 -13 -14 -14 -15 -15 -15 -15 -15 -15 -15 -15 -15 -15 -15 -16 -16 -17 -17 -17 -18 -18 -18 -19 -19 -19 -20 -20 -21 -21 -23 -24 -25 -25 -26 -27 -28 -29 -30 -31
-13 -14 -14 -14 -14 -14 -15 -15 -15 -15 -15 -15 -15 -15 -15 -16 -16 -16 -17 -17 -17 -18 -18 -18 -19 -19 -20 -20 -20 -21 -21 -22 -23 -24 -25 -26 -27 -28 -28 -29 -30 -32 -33
-14 -14 -14 -14 -15 -15 -15 -15 -15 -15 -15 -16 -16 -16 -16 -16 -17 -17 -18 -18 -18 -18 -19 -19 -20 -20 -21 -21 -21 -22 -23 -24 -25 -26 -27 -27 -28 -29 -29 -31 -32 -33 -34
-13 -14 -14 -15 -15 -15 -15 -15 -15 -15 -16 -16 -16 -16 -17 -17 -18 -18 -18 -19 -19 -19 -20 -20 -21 -21 -22 -22 -23 -24 -25 -26 -27 -27 -28 -29 -30 -30 -31 -32 -33 -34 -34
-14 -14 -15 -15 -15 -15 -15 -15 -15 -16 -16 -16 -17 -17 -17 -18 -19 -19 -19 -19 -20 -20 -20 -21 -21 -22 -22 -23 -24 -25 -26 -27 -28 -29 -30 -31 -31 -32 -32 -34 -34 -35 -35
-14 -15 -15 -15 -15 -15 -15 -15 -16 -16 -16 -17 -17 -18 -19 -19 -19 -19 -20 -20 -20 -21 -21 -22 -22 -23 -24 -25 -25 -26 -28 -28 -30 -30 -31 -31 -32 -33 -34 -34 -35 -36 -36
-14 -15 -15 -15 -15 -15 -15 -16 -16 -16 -17 -18 -18 -18 -19 -19 -20 -20 -20 -20 -21 -21 -22 -22 -23 -24 -25 -26 -27 -28 -29 -30 -31 -31 -32 -33 -33 -34 -35 -36 -36 -36 -37
-15 -15 -15 -15 -15 -15 -16 -16 -17 -17 -17 -18 -18 -19 -19 -20 -20 -20 -21 -21 -21 -23 -22 -23 -24 -26 -26 -27 -28 -29 -30 -31 -32 -32 -33 -33 -34 -35 -36 -36 -37 -37 -37
-15 -15 -16 -15 -16 -16 -16 -17 -17 -17 -18 -19 -19 -19 -20 -21 -21 -21 -21 -22 -23 -22 -23 -25 -26 -27 -28 -28 -29 -30 -31 -32 -33 -33 -34 -34 -35 -36 -37 -37 -37 -38 -37
-16 -16 -16 -16 -16 -16 -16 -17 -17 -18 -19 -19 -19 -20 -20 -21 -22 -22 -23 -23 -22 -24 -25 -27 -28 -28 -29 -29 -30 -31 -32 -33 -33 -34 -34 -35 -36 -36 -37 -37 -38 -38 -38
-16 -16 -16 -16 -17 -17 -17 -18 -19 -19 -20 -20 -20 -20 -21 -22 -22 -23 -23 -23 -24 -25 -27 -28 -29 -29 -30 -30 -31 -32 -33 -34 -34 -34 -35 -36 -36 -37 -37 -38 -38 -38 -38
-16 -17 -17 -17 -17 -18 -18 -19 -19 -20 -20 -20 -21 -21 -22 -23 -23 -23 -24 -25 -26 -27 -28 -29 -30 -30 -31 -32 -33 -33 -33 -34 -34 -35 -36 -36 -37 -37 -38 -38 -39 -39 -39
-17 -17 -18 -18 -18 -19 -19 -20 -20 -20 -20 -21 -21 -22 -22 -23 -23 -24 -26 -27 -28 -28 -29 -30 -30 -31 -32 -33 -33 -33 -34 -34 -35 -36 -36 -36 -37 -37 -38 -39 -39 -39 -39
-18 -18 -18 -18 -19 -19 -20 -20 -20 -20 -20 -20 -21 -22 -23 -24 -25 -26 -27 -29 -29 -30 -30 -31 -31 -32 -33 -33 -33 -34 -35 -35 -36 -36 -36 -36 -37 -38 -39 -39 -39 -39 -39
-19 -19 -19 -19 -20 -20 -20 -20 -20 -20 -21 -22 -22 -24 -25 -26 -27 -28 -29 -30 -30 -31 -31 -32 -33 -33 -34 -34 -34 -35 -35 -36 -36 -37 -37 -37 -38 -39 -39 -39 -39 -39 -39
-20 -20 -20 -20 -20 -20 -21 -21 -21 -22 -23 -24 -25 -26 -27 -28 -29 -29 -30 -30 -31 -32 -33 -33 -34 -34 -34 -34 -35 -35 -36 -37 -37 -37 -37 -38 -39 -39 -39 -39 -40 -40 -39
-21 -21 -21 -21 -21 -21 -22 -23 -24 -25 -26 -26 -27 -27 -28 -29 -29 -30 -31 -32 -32 -33 -33 -34 -34 -35 -35 -35 -36 -36 -36 -36 -37 -37 -38 -38 -39 -39 -39 -39 -40 -40 -40
-21 -22 -22 -23 -23 -24 -24 -25 -26 -26 -27 -28 -28 -29 -29 -30 -31 -32 -32 -33 -33 -34 -34 -35 -35 -35 -35 -36 -36 -36 -36 -37 -37 -38 -38 -38 -38 -39 -39 -39 -39 -40 -40
-23 -23 -24 -25 -25 -25 -26 -27 -27 -28 -28 -29 -30 -30 -31 -31 -32 -33 -33 -34 -34 -35 -35 -35 -35 -35 -36 -36 -37 -37 -37 -37 -38 -38 -38 -38 -39 -39 -39 -39 -39 -40 -40
-25 -25 -26 -26 -27 -27 -28 -28 -29 -30 -30 -31 -31 -31 -32 -32 -33 -34 -34 -35 -35 -35 -35 -35 -36 -36 -36 -37 -37 -37 -37 -38 -38 -38 -38 -38 -39 -39 -39 -39 -40 -40 -40
-26 -27 -27 -28 -28 -28 -29 -30 -30 -31 -31 -32 -32 -33 -33 -34 -35 -35 -35 -35 -35 -36 -36 -36 -36 -37 -37 -37 -37 -37 -37 -38 -38 -38 -38 -39 -39 -39 -40 -40 -40 -40 -40
-28 -28 -29 -30 -30 -31 -31 -31 -31 -32 -32 -33 -34 -35 -35 -35 -35 -35 -36 -36 -36 -36 -36 -37 -37 -37 -37 -37 -37 -38 -38 -38 -38 -39 -39 -39 -40 -40 -41 -41 -40 -40 -39
-31 -31 -31 -31 -31 -31 -32 -32 -33 -34 -35 -35 -36 -36 -36 -36 -36 -36 -36 -36 -36 -37 -37 -37 -37 -37 -38 -38 -38 -38 -39 -39 -39 -39 -40 -40 -41 -41 -41 -40 -40 -40 -39
-32 -32 -32 -32 -32 -33 -34 -35 -35 -36 -36 -36 -36 -36 -36 -37 -37 -37 -37 -37 -37 -38 -38 -38 -38 -38 -39 -38 -39 -39 -39 -39 -40 -40 -41 -41 -41 -41 -40 -40 -40 -39 -39
-32 -32 -33 -33 -34 -35 -36 -36 -36 -37 -37 -37 -37 -37 -37 -37 -37 -37 -38 -38 -38 -38 -38 -38 -39 -39 -39 -39 -40 -39 -39 -40 -40 -41 -41 -41 -40 -40 -40 -40 -40 -39 -39
-33 -34 -35 -36 -37 -37 -37 -37 -37 -37 -37 -37 -37 -37 -37 -38 -38 -39 -39 -39 -39 -39 -39 -39 -39 -39 -40 -40 -40 -40 -40 -41 -41 -41 -41 -40 -40 -40 -40 -39 -39 -39 -39

GFSGL_500_temp_048.txt.gz
Temp
-11 -11 -12 -12 -12 -13 -13 -13 -13 -14 -14 -15 -15 -15 -16 -16 -16 -16 -16 -16 -16 -16 -16 -17 -17 -18 -18 -18 -19 -19 -19 -19 -20 -21 -21 -21 -22 -22 -23 -25 -25 -27 -28
-11 -12 -12 -13 -13 -13 -14 -14 -14 -14 -15 -15 -16 -16 -16 -16 -16 -16 -16 -16 -16 -17 -17 -17 -18 -18 -19 -19 -19 -19 -20 -20 -21 -21 -22 -22 -23 -24 -25 -26 -26 -28 -29
-12 -12 -12 -13 -13 -14 -14 -15 -15 -15 -16 -16 -16 -16 -16 -16 -16 -16 -16 -17 -17 -18 -18 -18 -18 -19 -19 -20 -20 -20 -21 -21 -22 -22 -22 -23 -25 -25 -26 -27 -28 -29 -30
-12 -12 -13 -13 -14 -14 -14 -15 -15 -15 -15 -16 -16 -16 -16 -16 -16 -16 -16 -17 -18 -18 -18 -18 -19 -19 -20 -20 -20 -21 -21 -23 -22 -23 -24 -25 -26 -27 -27 -28 -29 -31 -31
-12 -13 -13 -13 -14 -15 -15 -15 -15 -15 -15 -15 -15 -16 -16 -16 -16 -16 -17 -17 -18 -18 -19 -19 -19 -19 -20 -21 -21 -22 -23 -23 -23 -24 -25 -26 -27 -28 -29 -29 -31 -32 -32
-13 -13 -14 -14 -14 -15 -15 -15 -15 -15 -15 -15 -16 -16 -16 -16 -16 -17 -17 -18 -19 -19 -19 -20 -20 -20 -21 -22 -22 -22 -24 -24 -25 -26 -27 -28 -29 -29 -30 -31 -32 -33 -33
-14 -14 -14 -15 -15 -15 -15 -15 -15 -15 -15 -15 -16 -16 -16 -16 -17 -18 -18 -19 -19 -20 -20 -20 -21 -22 -22 -22 -23 -24 -24 -25 -27 -27 -28 -29 -29 -30 -31 -32 -33 -34 -34
-14 -15 -15 -15 -15 -15 -15 -15 -15 -16 -16 -16 -16 -16 -16 -17 -18 -19 -20 -20 -20 -21 -21 -21 -22 -23 -23 -23 -24 -24 -26 -27 -28 -29 -29 -30 -31 -31 -32 -33 -34 -35 -35
-15 -15 -15 -16 -16 -16 -16 -16 -16 -16 -16 -16 -16 -17 -17 -18 -19 -20 -20 -21 -21 -21 -22 -22 -23 -23 -24 -24 -24 -26 -28 -29 -29 -30 -30 -31 -32 -33 -33 -34 -35 -36 -36
-15 -15 -16 -16 -16 -16 -16 -16 -16 -16 -16 -17 -17 -17 -18 -19 -20 -21 -21 -21 -22 -22 -22 -23 -23 -24 -24 -25 -27 -29 -29 -30 -30 -31 -32 -32 -33 -33 -34 -35 -36 -36 -37
-15 -16 -16 -16 -16 -16 -16 -16 -16 -17 -17 -17 -18 -19 -20 -20 -21 -20 -21 -21 -22 -22 -23 -24 -24 -25 -27 -29 -29 -30 -30 -30 -31 -32 -32 -33 -34 -34 -35 -36 -36 -37 -37
-16 -16 -16 -16 -16 -17 -17 -17 -17 -17 -17 -18 -19 -19 -20 -20 -21 -21 -22 -22 -23 -24 -24 -24 -26 -28 -29 -30 -30 -30 -31 -31 -32 -33 -33 -34 -34 -34 -35 -36 -37 -37 -37
-16 -16 -17 -17 -18 -17 -18 -18 -18 -18 -18 -19 -19 -20 -20 -21 -22 -22 -23 -23 -23 -24 -26 -27 -28 -29 -30 -30 -31 -31 -32 -33 -33 -34 -34 -34 -35 -35 -36 -37 -37 -37 -38
-16 -17 -17 -18 -18 -18 -18 -18 -18 -18 -19 -20 -20 -21 -22 -22 -22 -22 -23 -24 -25 -26 -28 -28 -29 -30 -30 -31 -31 -32 -33 -34 -34 -34 -35 -35 -36 -36 -37 -37 -37 -38 -38
-17 -18 -18 -19 -19 -19 -19 -19 -20 -21 -21 -21 -21 -21 -21 -21 -22 -23 -25 -26 -28 -29 -29 -29 -30 -30 -31 -31 -32 -33 -34 -34 -35 -35 -35 -36 -36 -37 -37 -37 -38 -38 -38
-19 -19 -19 -20 -20 -20 -20 -20 -21 -21 -21 -21 -21 -21 -22 -23 -25 -26 -27 -28 -29 -29 -30 -30 -31 -32 -33 -33 -34 -34 -35 -35 -35 -35 -36 -36 -37 -37 -37 -37 -38 -38 -38
-19 -20 -21 -21 -21 -21 -21 -21 -21 -21 -21 -22 -22 -23 -24 -25 -26 -27 -28 -29 -30 -30 -31 -31 -32 -33 -34 -34 -35 -35 -35 -35 -36 -36 -36 -36 -37 -37 -37 -37 -37 -38 -38
-21 -22 -22 -22 -22 -22 -22 -22 -22 -23 -23 -24 -25 -26 -27 -27 -28 -29 -30 -30 -31 -31 -32 -33 -33 -34 -35 -35 -35 -36 -36 -36 -36 -36 -36 -37 -37 -37 -37 -38 -38 -38 -38
-22 -22 -23 -23 -23 -23 -24 -24 -24 -25 -26 -26 -27 -27 -28 -29 -30 -30 -31 -31 -32 -32 -34 -34 -35 -35 -35 -36 -36 -36 -36 -36 -36 -37 -37 -37 -37 -37 -38 -38 -38 -38 -39
-23 -23 -24 -24 -25 -25 -26 -26 -26 -27 -27 -28 -28 -29 -29 -30 -30 -31 -31 -32 -33 -34 -35 -36 -36 -36 -36 -36 -36 -36 -37 -37 -37 -37 -37 -37 -38 -38 -38 -38 -38 -39 -39
-25 -25 -26 -26 -26 -27 -28 -28 -28 -28 -29 -29 -30 -30 -31 -31 -31 -32 -33 -34 -35 -36 -36 -36 -36 -36 -37 -37 -37 -37 -37 -37 -37 -37 -38 -38 -38 -38 -38 -39 -39 -40 -40
-27 -27 -27 -27 -28 -28 -28 -29 -29 -30 -31 -31 -31 -31 -32 -32 -33 -35 -36 -36 -37 -37 -37 -37 -37 -37 -37 -37 -37 -38 -37 -37 -38 -38 -38 -38 -39 -38 -40 -40 -41 -41 -41
-28 -28 -28 -29 -30 -30 -30 -31 -31 -32 -32 -32 -32 -33 -34 -35 -36 -36 -37 -37 -37 -37 -37 -37 -37 -37 -38 -38 -38 -38 -38 -38 -39 -39 -39 -39 -39 -40 -41 -41 -41 -41 -41
-30 -30 -31 -31 -31 -32 -32 -32 -32 -33 -33 -33 -34 -35 -36 -37 -37 -37 -37 -37 -37 -37 -37 -38 -38 -39 -39 -38 -38 -38 -39 -39 -39 -40 -40 -40 -40 -41 -41 -41 -41 -40 -40
-32 -32 -32 -32 -32 -32 -32 -33 -33 -34 -34 -35 -36 -37 -37 -37 -37 -37 -37 -37 -37 -38 -38 -39 -39 -39 -39 -39 -39 -39 -39 -40 -40 -40 -40 -41 -41 -41 -41 -41 -40 -40 -40
-33 -32 -33 -33 -33 -33 -34 -34 -35 -35 -36 -36 -37 -37 -37 -38 -38 -38 -38 -38 -38 -38 -39 -39 -40 -40 -40 -40 -40 -40 -40 -40 -40 -40 -41 -41 -40 -40 -40 -40 -40 -40 -40